Calls for Service

Disclaimer: This information is not intended to be used as official crime data. This program does not provide information about all crimes, and excludes specific incidents such as sexual assaults and child abuse. The City of Conway Police Department makes every effort to produce and publish current and accurate information. No warranties, expressed or implied, are provided for the data herein, its use, or its interpretation. The services provided are for informational purposes only and should not be relied on for any type of legal action.

Loading calls...
Showing calls from previous 10 days
Call Number Case Number Address Call Time Incident Type
18-1102321 2050 DAVE WARD DR 2018-11-14 21:18:36.997 STALLED VEHICLE
18-1102319 1955 KEATHLEY DR 2018-11-14 20:56:14.910 LOUD NOISE-MUSIC
18-1102313 1422 HARDY ST 2018-11-14 20:23:16.370 ATTEMPT TO CONTACT
18-1102312 18-13062 3100 IRBY DR 2018-11-14 20:21:57.890 HARASSING COMMUNICATIONS
18-1102311 1815 E OAK ST 2018-11-14 20:19:15.603 ALARM - BANK
18-1102309 81 MARY LN 2018-11-14 19:41:24.183 CIVIL STAND BY
18-1102308 623 5TH AV 2018-11-14 19:39:11.597 ATTEMPT TO CONTACT
18-1102306 18-13060 1250 S AMITY RD 2018-11-14 19:33:55.473 ACCIDENT - PRIVATE PROPERTY
18-1102305 324 SOUTH GERMAN LN 2018-11-14 19:32:00.403 ALARM
18-1102303 1615 FLEMING ST 2018-11-14 19:29:32.670 ATTEMPT TO CONTACT
18-1102302 18-13059 905 E OAK ST 2018-11-14 19:29:26.163 ACCIDENT - PERSONAL INJURY
18-1102301 3145 PEBBLE BEACH DR 2018-11-14 19:24:15.267 CIVIL STAND BY
18-1102300 1825 MILL ST 2018-11-14 19:01:48.133 DISTURBANCE
18-1102297 4955 LONGWALL DR 2018-11-14 18:33:06.093 SUSPICIOUS PERSON
18-1102296 515 HARKRIDER ST 2018-11-14 17:55:34.690 DISTURBANCE
18-1102294 18-13058 1105 SALEM RD 2018-11-14 17:41:14.987 ACCIDENT - PROPERTY DAMAGE
18-1102293 701 ROBINS ST 2018-11-14 17:37:56.397 RECKLESS DRIVER
18-1102292 801 SOUTH GERMAN LN 2018-11-14 17:13:37.550 911 HANGUP CALL
18-1102290 525 SKYLINE DR 2018-11-14 17:04:49.557 ALARM - HOLD UP or PANIC
18-1102289 18-13057 905 SKYLINE DR 2018-11-14 17:04:07.717 ACCIDENT - PROPERTY DAMAGE
18-1102287 1735 RACHEL DR 2018-11-14 16:40:21.740 SUPPLEMENT REPORT CALL
18-1102284 2845 CARL STUART ST 2018-11-14 15:55:23.347 MISSING PERSON
18-1102282 18-13054 1152 WOODSIDE DR 2018-11-14 15:35:27.700 RUNAWAY
18-1102281 380 HARKRIDER ST 2018-11-14 15:33:38.750 PARKING VIOLATION
18-1102278 2425 SANDERS ST 2018-11-14 15:20:21.310 SUPPLEMENT REPORT CALL
18-1102276 18-13052 845 CENTER ST 2018-11-14 15:02:50.847 HARASSMENT
18-1102275 1601 HOGAN LN 2018-11-14 14:55:16.430 ATTEMPT TO CONTACT
18-1102274 18-13053 1155 SKYLINE DR 2018-11-14 14:52:10.603 TRESPASSING
18-1102273 646 S HARKRIDER DR 2018-11-14 14:49:12.700 CHECKING VEHICLE
18-1102270 810 PARKWAY ST 2018-11-14 14:33:28.157 MISDEMEANOR WARRANT SERVICE
18-1102269 2400 MARKET PLAZA DR 2018-11-14 14:28:52.997 DOMESTIC DISTURBANCE
18-1102268 2018-11-14 14:22:59.277 ATTEMPT TO CONTACT
18-1102265 207 WILLOW ST 2018-11-14 13:53:53.493 SERVING SUBPOENA
18-1102264 1105 PRAIRIE ST 2018-11-14 13:50:45.933 SERVING SUBPOENA
18-1102263 3100 IRBY DR 2018-11-14 13:43:08.497 SERVING SUBPOENA
18-1102262 18-13050 4 BROADMOOR DR 2018-11-14 13:41:12.370 ACCIDENT - PRIVATE PROPERTY
18-1102261 1105 PRAIRIE ST 2018-11-14 13:41:03.497 SERVING SUBPOENA
18-1102260 18-13047 2413 JESSICA DR 2018-11-14 13:37:28.903 SERVING SUBPOENA
18-1102259 1060 CROSSPOINT RD 2018-11-14 13:29:20.620 SUPPLEMENT REPORT CALL
18-1102258 1701 HAIRSTON AV 2018-11-14 13:22:54.960 SERVING SUBPOENA
18-1102257 18-13046 1405 S DONAGHEY AV 2018-11-14 13:21:47.100 OPEN DOOR/WINDOW/FENCE
18-1102256 2560 DONAGHEY AV 2018-11-14 13:19:36.353 ATTEMPT TO CONTACT
18-1102254 1701 HAIRSTON AV 2018-11-14 13:16:23.580 SERVING SUBPOENA
18-1102252 2640 PRINCE ST 2018-11-14 13:08:10.030 TRAFFIC PROBLEM-CONTROL
18-1102251 18-13045 1380 S AMITY RD 2018-11-14 13:01:40.097 BREAKING OR ENTERING
18-1102247 813 OAK ST 2018-11-14 12:39:03.537 DISTURBANCE
18-1102246 1810 AMELIA DR 2018-11-14 12:37:29.297 TRESPASSING
18-1102244 7 MEDICAL LN 2018-11-14 12:31:22.053 HARASSING COMMUNICATIONS
18-1102243 805 OAK ST 2018-11-14 12:28:21.873 TRESPASSING
18-1102241 18-13044 1155 SKYLINE DR 2018-11-14 12:04:52.800 SHOPLIFTING
18-1102239 400 6TH ST 2018-11-14 11:28:47.473 STALLED VEHICLE
18-1102238 1100 E OAK ST 2018-11-14 11:23:36.153 FRAUD
18-1102236 900 RUNWAY DR 2018-11-14 11:18:01.493 REPOSSESSION
18-1102234 18-13042 1155 SKYLINE DR 2018-11-14 11:09:51.337 THEFT OF PROPERTY
18-1102233 2425 SANDERS ST 2018-11-14 11:06:23.600 SUPPLEMENT REPORT CALL
18-1102228 1520 E DAVE WARD DR 2018-11-14 10:44:03.693 911 HANGUP CALL
18-1102227 2302 COLLEGE AV 2018-11-14 10:42:21.200 DISTURBANCE
18-1102226 100 BROOKSIDE DR 2018-11-14 10:37:20.137 ATTEMPT TO CONTACT
18-1102225 1010 VAN RONKLE ST 2018-11-14 10:28:57.460 SUPPLEMENT REPORT CALL
18-1102224 1612 CHERRY ST 2018-11-14 10:23:28.023 ATTEMPT TO CONTACT
18-1102221 18-13040 2560 DONAGHEY AV 2018-11-14 10:14:26.890 THEFT OF PROPERTY
18-1102220 1704 CLIFTON ST 2018-11-14 10:14:11.557 CHECKING VEHICLE
18-1102219 1115 GUM ST 2018-11-14 10:06:33.540 DISTURBANCE
18-1102216 155 FARRIS RD 2018-11-14 09:53:19.447 VEHICLE TOW
18-1102214 1200 DAVE WARD DR 2018-11-14 09:47:16.120 RECKLESS DRIVER
18-1102212 32 TIMBERLANE TRL 2018-11-14 09:40:23.560 THEFT OF IDENTITY
18-1102210 1405 S DONAGHEY AV 2018-11-14 09:36:12.310 DOMESTIC DISTURBANCE
18-1102208 18-13037 420 2ND ST 2018-11-14 09:24:33.587 ABUSE
18-1102206 18-13039 1125 MORNINGSIDE DR 2018-11-14 09:21:17.800 FOUND PROPERTY
18-1102204 6195 DAVE WARD DR 2018-11-14 09:12:03.433 STALLED VEHICLE
18-1102202 1200 E DAVE WARD DR 2018-11-14 09:01:45.830 TRAFFIC PROBLEM-CONTROL
18-1102200 18-13033 2300 PRINCE ST 2018-11-14 08:59:39.317 ACCIDENT - PRIVATE PROPERTY
18-1102199 18-13035 51 TIMBERLANE TRL 2018-11-14 08:44:07.837 ACCIDENT - PROPERTY DAMAGE
18-1102196 545 E DAVE WARD DR 2018-11-14 08:33:59.730 DISTURBANCE
18-1102195 1601 MAYOR LN 2018-11-14 08:33:37.003 CRIMINAL MISCHIEF
18-1102194 18-13032 650 LOCUST AV 2018-11-14 08:31:05.270 FORGERY
18-1102193 2109 STOUT ST 2018-11-14 08:27:51.350 BATTERY REPORT
18-1102190 18-13030 1880 S AMITY RD 2018-11-14 08:11:10.300 BURGLARY
18-1102189 2850 STONEWOOD DR 2018-11-14 08:10:45.030 STALLED VEHICLE
18-1102188 1720 OLD MORRILTON HWY 2018-11-14 08:08:13.607 ALARM
18-1102185 18-13029 1292 E DAVE WARD DR 2018-11-14 07:47:49.577 THEFT OF PROPERTY
18-1102180 416 HEREFORD ST 2018-11-14 07:20:14.647 TRAFFIC PROBLEM-CONTROL
18-1102178 1615 SWEETSPIRE DR 2018-11-14 06:24:48.927 SUSPICIOUS PERSON
18-1102177 5385 SANSON DR 2018-11-14 05:45:11.327 SUSPICIOUS VEHICLE
18-1102175 575 2ND AV 2018-11-14 05:35:11.743 REPOSSESSION
18-1102174 2000 CALDWELL ST 2018-11-14 05:22:02.907 CHECKING PERSON
18-1102173 1836 CALDWELL ST 2018-11-14 05:12:32.507 ALARM
18-1102172 1405 DAVE WARD DR 2018-11-14 05:11:27.650 CHECKING VEHICLE
18-1102171 18-13028 2890 DAVE WARD DR 2018-11-14 03:52:20.807 ROBBERY
18-1102169 740 S HARKRIDER DR 2018-11-14 02:49:06.320 PURSUIT DRILL
18-1102168 955 SOUTH GERMAN LN 2018-11-14 02:47:10.710 STALLED VEHICLE
18-1102166 705 4TH ST 2018-11-14 01:54:42.887 PROWLER
18-1102165 18-13027 1640 E OAK ST 2018-11-14 01:37:06.653 BURGLARY
18-1102163 1060 RUNWAY DR 2018-11-14 01:21:05.877 CHECKING VEHICLE
18-1102162 225 TILK RD 2018-11-14 01:14:04.500 ALARM
18-1102161 350 GRANDVIEW HEIGHTS DR 2018-11-14 01:13:32.023 CHECKING VEHICLE
18-1102160 1205 JOSIE REA ST 2018-11-14 01:06:08.933 CHECKING VEHICLE
18-1102159 1201 OLD MORRILTON HWY 2018-11-14 01:00:53.857 CHECKING PERSON
18-1102157 21 TUCKER CREEK RD 2018-11-14 00:39:34.460 BURGLARY
18-1102156 1601 HOGAN LN 2018-11-14 00:35:37.730 ATTEMPT TO CONTACT
18-1102155 2840 DAVE WARD DR 2018-11-14 00:25:32.680 CHECKING VEHICLE
18-1102153 100 GRANDVIEW HEIGHTS DR 2018-11-13 23:18:55.437 CHECKING VEHICLE
18-1102152 867 FENDLEY DR 2018-11-13 23:13:38.613 911 HANGUP CALL
18-1102150 711 FRONT ST 2018-11-13 23:03:34.780 CHECKING VEHICLE
18-1102149 20 KINLEY DR 2018-11-13 23:00:45.317 CHECKING VEHICLE
18-1102147 1105 FENDLEY DR 2018-11-13 22:40:16.013 ALARM
18-1102144 1122 GUM ST 2018-11-13 22:08:06.687 SUSPICIOUS VEHICLE
18-1102143 475 ROBINS ST 2018-11-13 21:46:49.100 HARASSING COMMUNICATIONS
18-1102136 2501 DAVE WARD DR 2018-11-13 21:00:36.230 ALARM - HOLD UP or PANIC
18-1102134 911 OAK ST 2018-11-13 20:28:23.673 ALARM
18-1102131 800 MUSEUM RD 2018-11-13 20:17:36.567 ALARM
18-1102127 18-13025 2845 PEBBLE BEACH DR 2018-11-13 19:44:28.363 HARASSMENT
18-1102126 2402 PARKVIEW CIR 2018-11-13 19:39:40.247 DOMESTIC DISTURBANCE
18-1102125 955 SOUTH GERMAN LN 2018-11-13 19:38:06.723 LOUD NOISE-MUSIC
18-1102124 500 FARRIS RD 2018-11-13 19:34:54.717 STALLED VEHICLE
18-1102122 18-13023 150 E SIEBENMORGEN RD 2018-11-13 19:28:56.163 NEGLECT
18-1102120 245 FARRIS RD 2018-11-13 19:11:16.263 CIVIL MATTER
18-1102119 25 NABCO DR 2018-11-13 19:09:20.993 ALARM
18-1102117 2535 KRYSTAL KREEK DR 2018-11-13 18:42:48.160 BARKING DOG COMPLAINT
18-1102116 605 SOUTH GERMAN LN 2018-11-13 18:33:18.507 ATTEMPT TO CONTACT
18-1102114 1601 HOGAN LN 2018-11-13 18:09:00.630 TRESPASSING
18-1102113 18-13020 328 OLIVER ST 2018-11-13 18:07:52.210 DISTURBANCE
18-1102112 1000 CHAMPIONS DR 2018-11-13 18:01:15.157 ALARM
18-1102111 3034 DONNELL RIDGE RD 2018-11-13 17:59:13.490 SUSPICIOUS PERSON
18-1102110 4095 PRINCE ST 2018-11-13 17:57:52.527 STALLED VEHICLE
18-1102109 2840 DAVE WARD DR 2018-11-13 17:56:33.543 TRESPASSING
18-1102107 18-13019 600 SALEM RD 2018-11-13 17:53:53.720 ACCIDENT - PROPERTY DAMAGE
18-1102106 575 SALEM RD 2018-11-13 17:49:57.923 ACCIDENT - PROPERTY DAMAGE
18-1102105 1655 DAVE WARD DR 2018-11-13 17:44:29.650 ALARM - HOLD UP or PANIC
18-1102104 655 ELSINGER BLVD 2018-11-13 17:41:53.930 SUSPICIOUS PERSON
18-1102103 1405 S DONAGHEY AV 2018-11-13 17:39:32.423 CIVIL MATTER
18-1102101 1600 E SIEBENMORGEN RD 2018-11-13 17:35:33.430 LOST CHILD-FOUND CHILD
18-1102100 18-13022 3320 OLD MORRILTON HWY 2018-11-13 17:33:35.587 BURGLARY
18-1102099 480 EXCHANGE AV 2018-11-13 17:30:11.490 ATTEMPT TO CONTACT
18-1102098 50 FAIRMONT DR 2018-11-13 17:27:07.313 DOMESTIC DISTURBANCE
18-1102097 2904 JOANNA DR 2018-11-13 17:25:27.897 CRIMINAL MISCHIEF
18-1102094 10 PATTON CIR 2018-11-13 17:18:19.673 HARASSMENT
18-1102093 1099 SIEBENMORGEN RD 2018-11-13 17:18:08.363 CHECK ON THE WELFARE
18-1102092 500 SOUTH GERMAN LN 2018-11-13 17:10:03.060 NO CONTACT ORDER VIOLATION
18-1102090 1420 HUEBNER ST 2018-11-13 16:49:15.787 ATTEMPT TO CONTACT
18-1102088 1105 DEER ST 2018-11-13 16:36:49.187 ALARM
18-1102085 4055 GLENWOOD DR 2018-11-13 16:16:34.803 SUPPLEMENT REPORT CALL
18-1102084 1735 RACHEL DR 2018-11-13 16:09:12.500 SUPPLEMENT REPORT CALL
18-1102083 18-13016 707 ROBINS ST 2018-11-13 16:05:02.663 AGENCY ASSIST
18-1102080 613 MONROE ST 2018-11-13 15:53:36.903 BURGLARY
18-1102079 2300 PRINCE ST 2018-11-13 15:49:52.307 ACCIDENT - PRIVATE PROPERTY
18-1102078 18-13015 500 WATKINS ST 2018-11-13 15:41:01.517 ACCIDENT - PERSONAL INJURY
18-1102075 1500 HARKRIDER ST 2018-11-13 15:26:50.783 DOMESTIC DISTURBANCE
18-1102074 408 6TH ST 2018-11-13 15:20:04.077 AGENCY ASSIST
18-1102073 845 CENTER ST 2018-11-13 15:19:16.340 HARASSMENT
18-1102071 2255 STURGIS RD 2018-11-13 15:17:34.723 CIVIL MATTER
18-1102070 603 4TH AV 2018-11-13 15:16:32.727 SUSPICIOUS ACTIVITY
18-1102068 600 5TH AV 2018-11-13 12:13:54.987 ATTEMPT TO CONTACT
18-1102067 18-13036 145 GRAND FALLS 2018-11-13 12:09:07.983 THEFT OF IDENTITY
18-1102066 1606 COLLEGE AV 2018-11-13 12:07:52.387 CHECK ON THE WELFARE
18-1102065 408 6TH ST 2018-11-13 11:45:22.130 BATTERY REPORT
18-1102062 101 OAK ST 2018-11-13 11:10:23.513 ATTEMPT TO CONTACT
18-1102061 707 4TH AV 2018-11-13 11:10:21.673 LOST CHILD-FOUND CHILD
18-1102060 18-13012 2499 SANDERS ST 2018-11-13 11:06:42.903 ACCIDENT - PROPERTY DAMAGE
18-1102059 501 ELSINGER BLVD 2018-11-13 11:04:51.657 SUPPLEMENT REPORT CALL
18-1102058 805 AMITY RD 2018-11-13 10:58:54.020 FOUND PROPERTY
18-1102056 18-13013 1345 E OAK ST 2018-11-13 10:51:37.313 ACCIDENT - PEDESTRIAN
18-1102055 1 ALUMNI CIR 2018-11-13 10:48:07.933 ACCIDENT - PROPERTY DAMAGE
18-1102053 18-13011 125 I40WB 2018-11-13 10:40:46.697 ACCIDENT - HIT AND RUN
18-1102050 18-13009 2840 DAVE WARD DR 2018-11-13 10:29:27.860 SHOOTING
18-1102048 1430 JOYNER DR 2018-11-13 10:14:55.330 REPOSSESSION
18-1102047 18-13010 1405 S DONAGHEY AV 2018-11-13 10:13:46.390 ATTEMPT TO CONTACT
18-1102043 401 2ND ST 2018-11-13 09:40:20.787 CIVIL MATTER
18-1102042 319 WILLOW ST 2018-11-13 09:24:17.063 ATTEMPT TO CONTACT
18-1102038 18-13008 2425 SANDERS ST 2018-11-13 09:16:24.493 FOUND PROPERTY
18-1102036 905 SKYLINE DR 2018-11-13 08:59:09.960 ATTEMPT TO CONTACT
18-1102035 18-13007 1090 COLLIER DR 2018-11-13 08:50:34.033 THEFT OF PROPERTY
18-1102034 18-13006 3268 OLD MORRILTON HWY 2018-11-13 08:50:17.890 LOST PROPERTY
18-1102033 15 TIMBERLANE TRL 2018-11-13 08:48:13.090 ATTEMPT TO CONTACT
18-1102028 1500 HAIRSTON AV 2018-11-13 08:30:06.837 CHECKING PERSON
18-1102027 950 RIO GRANDE RD 2018-11-13 08:22:52.650 SUPPLEMENT REPORT CALL
18-1102021 1405 S DONAGHEY AV 2018-11-13 07:53:26.040 ATTEMPT TO CONTACT
18-1102019 136 EVE LN 2018-11-13 07:34:22.103 CITIZEN ASSIST
18-1102017 505 3RD AV 2018-11-13 06:36:24.480 NO CONTACT ORDER VIOLATION
18-1102016 18-13005 911 S HARKRIDER DR 2018-11-13 06:20:14.970 ACCIDENT - PROPERTY DAMAGE
18-1102015 2900 DAVE WARD DR 2018-11-13 06:02:25.327 STALLED VEHICLE
18-1102014 18-13004 646 S HARKRIDER DR 2018-11-13 05:18:31.430 ACCIDENT - PROPERTY DAMAGE
18-1102013 2330 SANDERS ST 2018-11-13 02:43:43.583 SUSPICIOUS PERSON
18-1102010 18 EVE LN 2018-11-13 01:31:13.217 ALARM
18-1102007 150 SKYLINE DR 2018-11-13 00:55:02.197 MISSING PERSON
18-1102005 475 ROBINS ST 2018-11-13 00:40:57.057 CHECKING PERSON
18-1102002 112 E OAK ST 2018-11-12 22:42:56.940 OPEN DOOR/WINDOW/FENCE
18-1102000 18-13003 3900 DAVE WARD DR 2018-11-12 22:29:49.210 SHOPLIFTING
18-1101999 1632 DONAGHEY AV 2018-11-12 22:23:03.203 DISTURBANCE
18-1101993 2018-11-12 21:13:05.467 MISSING PERSON
18-1101990 18-13000 1100 S AMITY RD 2018-11-12 21:03:05.827 THEFT OF PROPERTY
18-1101989 2225 RAINTREE DR 2018-11-12 20:52:26.257 AGENCY ASSIST
18-1101987 1200 DAVE WARD DR 2018-11-12 20:48:58.460 AGENCY ASSIST
18-1101978 505 OAK ST 2018-11-12 19:35:27.800 ALARM
18-1101975 1445 HUEBNER ST 2018-11-12 19:02:08.400 REPOSSESSION
18-1101973 350 SALEM RD 2018-11-12 18:12:37.733 SUSPICIOUS PERSON
18-1101972 1175 MORNINGSIDE DR 2018-11-12 18:01:06.343 AGENCY ASSIST
18-1101971 1500 MUSEUM RD 2018-11-12 17:57:42.750 TRAFFIC PROBLEM-CONTROL
18-1101970 18-12997 650 SKYLINE DR 2018-11-12 17:43:05.887 ACCIDENT - PROPERTY DAMAGE
18-1101969 103 CLUB LN 2018-11-12 17:41:57.163 DOMESTIC DISTURBANCE
18-1101966 515 2ND ST 2018-11-12 17:36:57.387 TRESPASSING
18-1101965 18-12996 2550 PRINCE ST 2018-11-12 17:32:49.103 SHOPLIFTING
18-1101963 25 NABCO DR 2018-11-12 17:21:41.167 ALARM - BANK
18-1101962 890 HEATHER CIR 2018-11-12 17:03:32.043 ALARM
18-1101961 2840 DAVE WARD DR 2018-11-12 17:01:32.633 CHECK ON THE WELFARE
18-1101958 1701 HAIRSTON AV 2018-11-12 16:23:20.917 CIVIL STAND BY
18-1101957 18-12995 10 PATTON CIR 2018-11-12 16:22:33.987 DISTURBANCE
18-1101956 2510 PRINCE ST 2018-11-12 16:07:07.080 CITIZEN ASSIST
18-1101955 401 MONROE ST 2018-11-12 16:03:31.217 CIVIL STAND BY
18-1101954 1952 BRUCE ST 2018-11-12 16:03:09.710 ATTEMPT TO CONTACT
18-1101953 18-12994 209 SKYLINE DR 2018-11-12 15:58:09.330 ATTEMPT TO CONTACT
18-1101948 2550 PRINCE ST 2018-11-12 15:31:17.583 FIGHT
18-1101946 3305 PRINCE ST 2018-11-12 14:58:27.333 ALARM
18-1101945 580 E DAVE WARD DR 2018-11-12 14:49:31.450 TRESPASSING
18-1101944 475 ROBINS ST 2018-11-12 14:32:21.090 CRIMINAL MISCHIEF
18-1101943 950 RIO GRANDE RD 2018-11-12 14:30:06.323 SUPPLEMENT REPORT CALL
18-1101938 18-12987 408 6TH ST 2018-11-12 14:19:26.670 ATTEMPT TO CONTACT
18-1101935 2550 PRINCE ST 2018-11-12 13:50:39.840 ATTEMPT TO CONTACT
18-1101934 2018-11-12 13:42:43.307 RECOVERED PROPERTY
18-1101933 18-12974 899 ELSINGER BLVD 2018-11-12 13:22:19.910 ACCIDENT - PERSONAL INJURY
18-1101932 408 6TH ST 2018-11-12 13:09:01.830 ATTEMPT TO CONTACT
18-1101931 1105 PRAIRIE ST 2018-11-12 13:06:59.147 ATTEMPT TO CONTACT
18-1101928 18-12970 505 DAVE WARD DR 2018-11-12 12:49:06.327 ACCIDENT - PROPERTY DAMAGE
18-1101927 950 RIO GRANDE RD 2018-11-12 12:19:48.183 SUPPLEMENT REPORT CALL
18-1101924 380 HARKRIDER ST 2018-11-12 12:05:17.340 CHECKING PERSON
18-1101923 18-12969 1100 E DAVE WARD DR 2018-11-12 11:58:25.807 ACCIDENT - PROPERTY DAMAGE
18-1101921 1105 PRAIRIE ST 2018-11-12 11:44:50.263 ATTEMPT TO CONTACT
18-1101916 1155 SKYLINE DR 2018-11-12 11:11:31.960 CHECKING VEHICLE
18-1101912 1419 COLLEGE AV 2018-11-12 10:29:45.337 ALARM
18-1101911 18-12966 755 ELSINGER BLVD 2018-11-12 10:25:49.643 THEFT OF PROPERTY
18-1101910 18-12967 1224 JERSEY ST 2018-11-12 10:24:09.833 ATTEMPT TO CONTACT
18-1101909 1803 HUTTO ST 2018-11-12 10:23:17.747 CRIMINAL MISCHIEF
18-1101908 1600 WASHINGTON AV 2018-11-12 10:19:45.833 ATTEMPT TO CONTACT
18-1101907 62 GRIFFITH ST 2018-11-12 10:09:46.847 AGENCY ASSIST
18-1101904 711 FRONT ST 2018-11-12 09:38:42.473 VEHICLE TOW
18-1101900 18-12965 1050 JOHN MASON DR 2018-11-12 09:26:41.833 THEFT OF VEHICLE
18-1101899 1970 RICH SMITH LN 2018-11-12 09:18:33.230 CHECK ON THE WELFARE
18-1101898 150 AMITY RD 2018-11-12 09:18:31.860 SUPPLEMENT REPORT CALL
18-1101897 408 6TH ST 2018-11-12 09:03:39.353 ATTEMPT TO CONTACT
18-1101895 2018-11-12 08:59:49.270 RECOVERED VEHICLE
18-1101892 595 2ND AV 2018-11-12 08:44:10.157 LOUD NOISE-MUSIC
18-1101891 2312 MARTHA DR 2018-11-12 08:27:51.453 ALARM
18-1101890 600 E DAVE WARD DR 2018-11-12 08:27:41.210 STALLED VEHICLE
18-1101889 18-12964 950 RIO GRANDE RD 2018-11-12 08:24:05.670 MISSING PERSON
18-1101884 2603 DAVE WARD DR 2018-11-12 06:19:21.553 FIRE DEPT ASSIST
18-1101882 18-12962 2901 COLLEGE AV 2018-11-12 05:28:10.647 ACCIDENT - PROPERTY DAMAGE
18-1101881 2700 ARCHER LN 2018-11-12 03:54:57.987 LOUD NOISE-MUSIC
18-1101880 3200 DAVE WARD DR 2018-11-12 03:41:21.790 CHECKING PERSON
18-1101879 461 ELSINGER BLVD 2018-11-12 03:36:19.190 ALARM
18-1101878 3055 DONNELL RIDGE RD 2018-11-12 03:24:09.327 PROWLER
18-1101876 18-12960 475 ROBINS ST 2018-11-12 02:31:38.200 CHECKING VEHICLE
18-1101874 310 S HARKRIDER DR 2018-11-12 01:47:45.660 CHECKING BUILDING
18-1101872 2445 PEABODY DR 2018-11-12 00:43:54.867 REPOSSESSION
18-1101871 3200 VAIL AV 2018-11-12 00:40:28.840 ALARM
18-1101870 18-12959 825 OAK ST 2018-11-12 00:38:10.090 CHECK ON THE WELFARE
18-1101868 107 SHAMROCK DR 2018-11-12 00:16:58.020 REPOSSESSION
18-1101867 580 E DAVE WARD DR 2018-11-12 00:12:56.717 TRESPASSING
18-1101866 3100 IRBY DR 2018-11-11 23:59:30.853 LOUD NOISE-MUSIC
18-1101865 18-12958 501 ELSINGER BLVD 2018-11-11 23:55:59.330 BREAKING OR ENTERING
18-1101863 602 2ND ST 2018-11-11 23:38:15.030 AGENCY ASSIST
18-1101862 545 E DAVE WARD DR 2018-11-11 23:26:55.087 SHOPLIFTING
18-1101861 2405 DAVE WARD DR 2018-11-11 23:22:58.223 CHECKING PERSON
18-1101860 1845 OLD MORRILTON HWY 2018-11-11 23:01:17.340 DISTURBANCE
18-1101859 2640 PRINCE ST 2018-11-11 22:33:11.737 CHECKING VEHICLE
18-1101858 1720 OLD MORRILTON HWY 2018-11-11 22:14:52.783 ATTEMPT TO CONTACT
18-1101857 475 ROBINS ST 2018-11-11 21:13:33.540 DISTURBANCE
18-1101856 18-12957 1720 OLD MORRILTON HWY 2018-11-11 21:11:42.773 HARASSMENT
18-1101855 475 ROBINS ST 2018-11-11 21:11:21.313 ATTEMPT TO CONTACT
18-1101854 1085 MORNINGSIDE DR 2018-11-11 21:09:48.290 ALARM
18-1101853 1305 S HARKRIDER DR 2018-11-11 21:09:05.160 SUSPICIOUS VEHICLE
18-1101852 1100 REYNOLDS AV 2018-11-11 20:42:32.617 ALARM
18-1101851 2010 RICH SMITH LN 2018-11-11 20:40:42.753 VEHICLE TOW
18-1101849 82 CHRISTIE DR 2018-11-11 20:36:08.060 CHECK ON THE WELFARE
18-1101845 2455 DONAGHEY AV 2018-11-11 19:31:03.217 LOUD NOISE-MUSIC
18-1101844 707 3RD AV 2018-11-11 19:21:57.937 911 HANGUP CALL
18-1101843 1840 LEE AV 2018-11-11 18:50:45.083 SUSPICIOUS ACTIVITY
18-1101842 18-12956 545 SKYLINE DR 2018-11-11 18:33:51.117 ACCIDENT - PROPERTY DAMAGE
18-1101841 1720 BRUCE ST 2018-11-11 18:31:29.803 CIVIL MATTER
18-1101839 1628 INDEPENDENCE ST 2018-11-11 18:14:48.993 CIVIL STAND BY
18-1101838 18-12955 600 SKYLINE DR 2018-11-11 18:03:14.573 ACCIDENT - PERSONAL INJURY
18-1101836 18-12953 1101 OLD MORRILTON HWY 2018-11-11 17:46:56.397 ACCIDENT - PERSONAL INJURY
18-1101834 18-12952 901 E OAK ST 2018-11-11 17:27:59.633 ACCIDENT - PROPERTY DAMAGE
18-1101833 18-12954 356 FARRIS RD 2018-11-11 17:23:00.210 DOMESTIC DISTURBANCE
18-1101832 530 S DONAGHEY AV 2018-11-11 17:14:24.757 ALARM
18-1101831 1628 INDEPENDENCE ST 2018-11-11 17:03:06.933 TERRORISTIC THREATENING
18-1101827 675 AMITY RD 2018-11-11 16:23:14.257 DISTURBANCE
18-1101826 545 E DAVE WARD DR 2018-11-11 16:13:06.393 CHECK ON THE WELFARE
18-1101825 1127 HARKRIDER ST 2018-11-11 16:12:06.320 DOMESTIC DISTURBANCE
18-1101824 18-12951 332 S DAVIS ST 2018-11-11 15:59:42.813 THEFT OF PROPERTY
18-1101823 245 OAK ST 2018-11-11 15:54:37.170 BATTERY REPORT
18-1101822 5410 CHATEAU DR 2018-11-11 15:35:13.043 ALARM
18-1101820 1930 HENRY ST 2018-11-11 15:25:37.017 DOMESTIC DISTURBANCE
18-1101819 18-12950 801 ELSINGER BLVD 2018-11-11 15:19:59.590 SHOPLIFTING
18-1101818 645 MILAM DR 2018-11-11 15:14:47.380 DISTURBANCE
18-1101817 101 OAK ST 2018-11-11 15:13:30.400 FOUND PROPERTY
18-1101815 2730 DAVE WARD DR 2018-11-11 15:02:32.397 DOMESTIC DISTURBANCE
18-1101814 3900 DAVE WARD DR 2018-11-11 14:59:27.943 SHOPLIFTING
18-1101811 2670 DONAGHEY AV 2018-11-11 14:50:22.597 DISTURBANCE
18-1101810 18-12949 401 MONROE ST 2018-11-11 14:36:59.807 DOMESTIC DISTURBANCE
18-1101809 2503 W MARTIN ST 2018-11-11 14:36:03.443 DOMESTIC DISTURBANCE
18-1101805 1550 E DAVE WARD DR 2018-11-11 14:06:49.717 ATTEMPT TO CONTACT
18-1101804 1701 CLEVELAND AV 2018-11-11 13:41:45.043 SUPPLEMENT REPORT CALL
18-1101803 18-12948 1004 VAN RONKLE ST 2018-11-11 13:37:45.420 ACCIDENT - PRIVATE PROPERTY
18-1101801 1550 E DAVE WARD DR 2018-11-11 13:31:37.200 CHECK ON THE WELFARE
18-1101800 2255 STURGIS RD 2018-11-11 13:26:05.217 AGENCY ASSIST
18-1101799 2300 HOGAN LN 2018-11-11 13:21:16.757 SUSPICIOUS VEHICLE
18-1101797 18-12947 801 ELSINGER BLVD 2018-11-11 12:42:11.520 SHOPLIFTING
18-1101796 18-12946 2050 DAVE WARD DR 2018-11-11 12:41:45.773 ATTEMPT TO CONTACT
18-1101795 18-12945 150 AMITY RD 2018-11-11 12:37:38.813 THEFT OF PROPERTY
18-1101794 120 E OAK ST 2018-11-11 12:34:19.540 PARKING VIOLATION
18-1101790 18-12944 500 ELSINGER BLVD 2018-11-11 11:58:14.923 ACCIDENT - PROPERTY DAMAGE
18-1101789 1155 SKYLINE DR 2018-11-11 11:48:13.730 ATTEMPT TO CONTACT
18-1101788 1030 SKYLINE DR 2018-11-11 11:22:09.453 HARASSMENT
18-1101787 20 KINLEY DR 2018-11-11 11:19:22.270 CHECK ON THE WELFARE
18-1101783 1155 SKYLINE DR 2018-11-11 11:00:30.687 ATTEMPT TO CONTACT
18-1101782 580 E DAVE WARD DR 2018-11-11 10:58:27.993 CHECK ON THE WELFARE
18-1101780 1155 SKYLINE DR 2018-11-11 10:05:39.283 ATTEMPT TO CONTACT
18-1101779 18-12942 2445 LANDOVER TRL 2018-11-11 10:03:24.037 ACCIDENT - HIT AND RUN
18-1101778 408 6TH ST 2018-11-11 10:02:55.273 ATTEMPT TO CONTACT
18-1101777 1224 JERSEY ST 2018-11-11 09:56:13.577 ATTEMPT TO CONTACT
18-1101776 600 MILAM DR 2018-11-11 09:51:24.070 PARKING VIOLATION
18-1101774 1201 OLD MORRILTON HWY 2018-11-11 09:36:11.497 ATTEMPT TO CONTACT
18-1101773 5 KENSINGTON DR 2018-11-11 09:08:32.283 PURSUIT DRILL
18-1101771 815 E OAK ST 2018-11-11 08:12:04.583 FOUND PROPERTY
18-1101768 633 S COUNTRY CLUB RD 2018-11-11 07:20:00.840 DISORDERLY CONDUCT
18-1101767 500 MILAM DR 2018-11-11 06:34:06.593 PARKING VIOLATION
18-1101766 1 WOODLAWN DR 2018-11-11 06:30:48.723 911 HANGUP CALL
18-1101765 500 SOUTH GERMAN LN 2018-11-11 05:36:12.760 MISDEMEANOR WARRANT SERVICE
18-1101764 1105 FENDLEY DR 2018-11-11 05:24:40.620 ALARM
18-1101763 2099 STANLEY RUSS RD 2018-11-11 04:02:07.450 CHECKING VEHICLE
18-1101761 2015 RICH SMITH LN 2018-11-11 03:02:32.347 CHECKING VEHICLE
18-1101760 1555 EXCHANGE AV 2018-11-11 02:25:18.567 TRESPASSING
18-1101757 410 ELSINGER BLVD 2018-11-11 01:13:27.453 ALARM
18-1101756 260 GRAND FALLS 2018-11-11 00:55:06.620 THEFT OF PROPERTY
18-1101754 4550 OLD MORRILTON HWY 2018-11-11 00:35:02.660 OPEN DOOR/WINDOW/FENCE
18-1101753 1970 RICH SMITH LN 2018-11-11 00:23:55.160 CHECK ON THE WELFARE
18-1101752 1 CADRON SETTLEMENT PARK RD 2018-11-11 00:23:03.260 CHECKING BUILDING
18-1101751 1701 DAVE WARD DR 2018-11-11 00:14:51.653 DISTURBANCE
18-1101747 1090 SKYLINE DR 2018-11-10 22:51:08.210 RECKLESS DRIVER
18-1101746 6195 DAVE WARD DR 2018-11-10 22:19:47.617 SUSPICIOUS VEHICLE
18-1101745 3100 IRBY DR 2018-11-10 22:11:24.130 DOMESTIC DISTURBANCE
18-1101744 1611 E OAK ST 2018-11-10 22:00:48.120 LOUD NOISE-MUSIC
18-1101743 18-12941 215 FARRIS RD 2018-11-10 21:54:20.793 CHECK ON THE WELFARE
18-1101741 2535 KRYSTAL KREEK DR 2018-11-10 21:46:41.240 BARKING DOG COMPLAINT
18-1101740 1440 DAVE WARD DR 2018-11-10 21:41:41.890 CIVIL MATTER
18-1101739 18-12940 2125 CEDAR OAKS DR 2018-11-10 21:32:09.237 ACCIDENT - PROPERTY DAMAGE
18-1101738 3700 DAVE WARD DR 2018-11-10 21:32:01.497 CHECK ON THE WELFARE
18-1101737 1200 S AMITY RD 2018-11-10 21:16:33.290 SUSPICIOUS PERSON
18-1101736 801 ELSINGER BLVD 2018-11-10 20:59:37.517 CHECKING PERSON
18-1101731 150 SKYLINE DR 2018-11-10 20:07:52.207 911 HANGUP CALL
18-1101730 2505 PRINCE ST 2018-11-10 20:02:46.423 TRAFFIC PROBLEM-CONTROL
18-1101729 3900 DAVE WARD DR 2018-11-10 19:56:34.800 SUSPICIOUS PERSON
18-1101728 831 NUTTERS CHAPEL RD 2018-11-10 19:53:04.220 BARKING DOG COMPLAINT
18-1101727 18-12937 1335 CHAMPIONS DR 2018-11-10 19:47:25.783 ACCIDENT - PERSONAL INJURY
18-1101725 2100 CALDWELL ST 2018-11-10 19:33:57.323 ATTEMPT TO CONTACT
18-1101724 18-12935 550 E DAVE WARD DR 2018-11-10 19:18:43.800 ACCIDENT - PROPERTY DAMAGE
18-1101722 18-12936 190 SKYLINE DR 2018-11-10 19:12:44.697 ACCIDENT - PRIVATE PROPERTY
18-1101721 1040 S AMITY RD 2018-11-10 19:10:44.970 SUSPICIOUS VEHICLE
18-1101720 1701 HAIRSTON AV 2018-11-10 18:53:19.777 DISTURBANCE
18-1101719 705 4TH ST 2018-11-10 18:46:13.260 SUPPLEMENT REPORT CALL
18-1101718 1065 SKYLINE DR 2018-11-10 18:42:09.217 ATTEMPT TO CONTACT
18-1101717 18-12932 401 2ND ST 2018-11-10 18:28:07.737 DISTURBANCE
18-1101716 18-12934 402 OAK ST 2018-11-10 18:26:35.330 CHECK ON THE WELFARE
18-1101715 1105 SKYLINE DR 2018-11-10 18:15:58.117 SUPPLEMENT REPORT CALL
18-1101714 1065 SKYLINE DR 2018-11-10 18:01:46.023 CHECK ON THE WELFARE
18-1101712 18-12931 3900 DAVE WARD DR 2018-11-10 17:49:36.160 SHOPLIFTING
18-1101711 18-12930 1080 S AMITY RD 2018-11-10 17:47:53.320 ACCIDENT - PRIVATE PROPERTY
18-1101707 3900 DAVE WARD DR 2018-11-10 16:27:42.293 RECKLESS DRIVER
18-1101706 4402 DAVE WARD DR 2018-11-10 16:27:42.030 RECKLESS DRIVER
18-1101705 475 ROBINS ST 2018-11-10 16:26:06.390 FIGHT
18-1101704 475 ROBINS ST 2018-11-10 15:53:07.390 CIVIL MATTER
18-1101703 18-12928 1701 CLEVELAND AV 2018-11-10 15:49:57.927 ACCIDENT - PROPERTY DAMAGE
18-1101702 1001 SPRUCE ST 2018-11-10 15:45:42.570 CHECK ON THE WELFARE
18-1101701 18-12927 2275 WILMINGTON DR 2018-11-10 15:38:33.417 CRIMINAL MISCHIEF
18-1101700 810 ELSINGER BLVD 2018-11-10 15:29:50.027 SUSPICIOUS PERSON
18-1101699 300 S DONAGHEY AV 2018-11-10 15:29:07.900 ATTEMPT TO CONTACT
18-1101698 3900 DAVE WARD DR 2018-11-10 15:21:57.293 ENDANGERING WELFARE OF MINOR
18-1101696 700 ELSINGER BLVD 2018-11-10 15:16:16.213 SUPPLEMENT REPORT CALL
18-1101695 2235 DAVE WARD DR 2018-11-10 15:06:48.287 ENDANGERING WELFARE OF MINOR
18-1101694 18-12925 705 MUSEUM RD 2018-11-10 15:02:12.890 CRIMINAL MISCHIEF
18-1101692 18-12926 705 4TH ST 2018-11-10 14:55:58.143 LOST PROPERTY
18-1101691 1128 HARKRIDER ST 2018-11-10 14:53:08.063 ALARM
18-1101687 18-12924 700 ELSINGER BLVD 2018-11-10 14:19:58.543 BREAKING OR ENTERING
18-1101686 18-12923 101 OAK ST 2018-11-10 14:08:32.297 ACCIDENT - PRIVATE PROPERTY
18-1101685 505 E DAVE WARD DR 2018-11-10 13:44:30.047 ALARM - BANK
18-1101684 1001 MUSEUM RD 2018-11-10 13:34:18.850 RECKLESS DRIVER
18-1101683 18-12922 2550 PRINCE ST 2018-11-10 13:21:31.580 SHOPLIFTING
18-1101682 18-12920 100 GRANDVIEW HEIGHTS DR 2018-11-10 13:08:40.137 ACCIDENT - PERSONAL INJURY
18-1101677 1155 SKYLINE DR 2018-11-10 12:50:09.640 SUSPICIOUS PERSON
18-1101676 3930 LEDBETTER DR 2018-11-10 12:36:29.467 ALARM - HOLD UP or PANIC
18-1101675 18-12918 1122 GUM ST 2018-11-10 12:36:19.693 BREAKING OR ENTERING
18-1101674 18-12919 125 I40WB 2018-11-10 12:30:31.637 ACCIDENT - PERSONAL INJURY
18-1101673 1623 RUSHING CIR 2018-11-10 12:20:47.250 CIVIL MATTER
18-1101672 1624 ROBINSON AV 2018-11-10 12:19:12.077 BURGLARY
18-1101671 1895 DAVE WARD DR 2018-11-10 12:18:22.583 ALARM
18-1101669 18-12917 1010 VAN RONKLE ST 2018-11-10 11:54:18.317 THEFT OF PROPERTY
18-1101668 1107 GUM ST 2018-11-10 11:45:47.987 FOUND PROPERTY
18-1101667 18-12916 1555 EXCHANGE AV 2018-11-10 11:37:04.413 TERRORISTIC THREATENING
18-1101665 2101 SUGAR CREEK DR 2018-11-10 11:05:38.143 SHOTS FIRED
18-1101664 1825 E OAK ST 2018-11-10 10:30:05.967 HARASSMENT
18-1101663 350 GRANDVIEW HEIGHTS DR 2018-11-10 10:27:17.560 CITIZEN ASSIST
18-1101662 2010 CLEVELAND AV 2018-11-10 10:22:25.173 ATTEMPT TO CONTACT
18-1101660 1068 MARKHAM ST 2018-11-10 10:17:47.807 RECKLESS DRIVER
18-1101658 1224 JERSEY ST 2018-11-10 10:16:26.457 ATTEMPT TO CONTACT
18-1101657 2600 W MARTIN ST 2018-11-10 10:14:21.720 SUPPLEMENT REPORT CALL
18-1101656 2590 DONAGHEY AV 2018-11-10 10:12:16.433 FRAUD
18-1101655 1900 HOGAN LN 2018-11-10 09:53:18.827 DISTURBANCE
18-1101654 1600 WASHINGTON AV 2018-11-10 09:43:04.357 SUPPLEMENT REPORT CALL
18-1101653 18-12915 285 GREAT FALLS 2018-11-10 09:41:42.617 UNAUTHORIZED USE OF MOTOR VEHICLE
18-1101652 2850 RAZORBACK DR 2018-11-10 09:36:11.340 ALARM
18-1101651 525 DAVIS ST 2018-11-10 09:25:23.320 DISTURBANCE
18-1101650 18-12913 2799 SALEM RD 2018-11-10 09:16:50.067 ACCIDENT - PROPERTY DAMAGE
18-1101649 18-12914 19 DEERWOOD DR 2018-11-10 09:08:38.633 TERRORISTIC THREATENING
18-1101645 131 GRAND FALLS 2018-11-10 08:22:11.850 DOMESTIC DISTURBANCE
18-1101643 2550 PRINCE ST 2018-11-10 07:41:31.160 STALLED VEHICLE
18-1101641 18-12912 1040 S AMITY RD 2018-11-10 07:34:50.000 ACCIDENT - HIT AND RUN
18-1101639 1305 DAVE WARD DR 2018-11-10 07:08:02.040 ALARM
18-1101638 3110 VIRGINIA ST 2018-11-10 06:49:11.647 UNKNOWN TROUBLE
18-1101637 1365 MITCHELL ST 2018-11-10 05:59:34.890 CIVIL MATTER
18-1101636 1400 E W MARTIN DR 2018-11-10 05:56:43.237 ALARM
18-1101635 400 E DAVE WARD DR 2018-11-10 05:56:29.927 TRAFFIC LIGHT PROBLEM
18-1101633 1224 JERSEY ST 2018-11-10 04:51:05.190 ATTEMPT TO CONTACT
18-1101632 500 SOUTH GERMAN LN 2018-11-10 04:34:20.513 MISDEMEANOR WARRANT SERVICE
18-1101630 1420 SALEM RD 2018-11-10 03:44:25.943 FIRE DEPT ASSIST
18-1101628 3650 NOBLETT DR 2018-11-10 03:19:16.070 ALARM
18-1101627 2845 PEBBLE BEACH DR 2018-11-10 02:42:07.990 INTOXICATED PERSON
18-1101626 1709 MARILYN DR 2018-11-10 02:21:41.073 CHECK ON THE WELFARE
18-1101625 3230 PEBBLE BEACH DR 2018-11-10 02:18:05.007 CHECK ON THE WELFARE
18-1101624 18-12910 2515 W MARTIN ST 2018-11-10 02:02:57.007 ACCIDENT - PRIVATE PROPERTY
18-1101622 18-12909 235 FARRIS RD 2018-11-10 01:58:21.867 FIGHT
18-1101621 2515 W MARTIN ST 2018-11-10 01:38:35.727 LOUD NOISE-MUSIC
18-1101620 18-12908 1155 SKYLINE DR 2018-11-10 01:34:57.210 CHECKING VEHICLE
18-1101619 605 DAVE WARD DR 2018-11-10 01:23:59.897 ALARM
18-1101618 542 4TH ST 2018-11-10 01:21:03.733 CHECKING VEHICLE
18-1101617 1900 TYLER ST 2018-11-10 01:06:22.373 CHECKING VEHICLE
18-1101616 1225 WOODSIDE DR 2018-11-10 01:01:23.043 CHECKING VEHICLE
18-1101615 2510 PRINCE ST 2018-11-10 00:36:58.690 STALLED VEHICLE
18-1101614 1001 OAK ST 2018-11-10 00:02:49.333 AGENCY ASSIST
18-1101612 2125 HARKRIDER ST 2018-11-09 23:59:53.913 ALARM
18-1101611 1845 OLD MORRILTON HWY 2018-11-09 23:40:25.280 CITIZEN ASSIST
18-1101609 2000 SILVER SPRINGS CIR 2018-11-09 23:18:20.017 CHECKING BUILDING
18-1101607 1 CADRON SETTLEMENT PARK RD 2018-11-09 22:36:59.860 CHECKING BUILDING
18-1101606 18-12906 3100 SALEM RD 2018-11-09 22:24:43.633 RECKLESS DRIVER
18-1101604 18-12907 1811 MARTIN ST 2018-11-09 22:01:02.603 AGENCY ASSIST
18-1101603 18-12905 4815 CATHEDRAL DR 2018-11-09 21:42:47.930 CHECK ON THE WELFARE
18-1101602 4 WOODLAWN DR 2018-11-09 21:38:03.650 UNKNOWN TROUBLE
18-1101601 1145 CLIFTON ST 2018-11-09 21:30:30.950 SUPPLEMENT REPORT CALL
18-1101599 5000 COLLEGE AV 2018-11-09 21:19:01.607 SUSPICIOUS PERSON
18-1101598 2100 CALDWELL ST 2018-11-09 21:13:41.053 CHECK ON THE WELFARE
18-1101597 525 SKYLINE DR 2018-11-09 20:56:03.310 CHECK ON THE WELFARE
18-1101595 2300 PRINCE ST 2018-11-09 20:48:42.630 ATTEMPT TO CONTACT
18-1101594 2850 PRINCE ST 2018-11-09 20:42:36.957 REPOSSESSION
18-1101593 1224 JERSEY ST 2018-11-09 20:21:26.073 ATTEMPT TO CONTACT
18-1101592 1500 ARDEN LN 2018-11-09 20:16:57.997 CHECK ON THE WELFARE
18-1101591 3750 DAVE WARD DR 2018-11-09 20:01:46.847 SUSPICIOUS PERSON
18-1101590 380 S DAVIS ST 2018-11-09 20:00:32.780 CIVIL MATTER
18-1101588 201 SKYLINE DR 2018-11-09 19:50:00.477 REPOSSESSION
18-1101586 801 ELSINGER BLVD 2018-11-09 19:24:37.660 ACCIDENT - PRIVATE PROPERTY
18-1101583 2300 PRINCE ST 2018-11-09 19:10:24.863 FIGHT
18-1101581 1250 OLD MORRILTON HWY 2018-11-09 18:59:53.707 DOMESTIC DISTURBANCE
18-1101580 2400 PRINCE ST 2018-11-09 18:46:35.773 FIGHT
18-1101579 1515 HARDY ST 2018-11-09 18:38:36.150 CIVIL MATTER
18-1101577 81 MARY LN 2018-11-09 18:28:01.923 CIVIL STAND BY
18-1101576 18-12904 2501 DAVE WARD DR 2018-11-09 18:21:41.330 ACCIDENT - HIT AND RUN
18-1101573 655 MILAM DR 2018-11-09 18:17:34.990 BARKING DOG COMPLAINT
18-1101572 1422 E OAK ST 2018-11-09 18:11:11.013 REPOSSESSION
18-1101571 2550 PRINCE ST 2018-11-09 18:04:29.507 SUSPICIOUS ACTIVITY
18-1101569 2840 DAVE WARD DR 2018-11-09 18:00:34.053 CHECK ON THE WELFARE
18-1101567 1111 E OAK ST 2018-11-09 17:37:51.850 ACCIDENT - PRIVATE PROPERTY
18-1101565 18-12903 1111 E OAK ST 2018-11-09 17:36:00.420 ACCIDENT - PRIVATE PROPERTY
18-1101564 81 MARY LN 2018-11-09 17:21:00.057 DOMESTIC DISTURBANCE
18-1101562 18-12902 855 SALEM RD 2018-11-09 16:56:14.560 SHOPLIFTING
18-1101561 1399 MARKHAM ST 2018-11-09 16:41:26.320 CHECKING PERSON
18-1101560 18-12901 800 PADGETT RD 2018-11-09 16:36:33.197 ACCIDENT - PRIVATE PROPERTY
18-1101558 2005 CALDWELL ST 2018-11-09 16:21:50.960 ATTEMPT TO CONTACT
18-1101557 18-12900 545 E DAVE WARD DR 2018-11-09 16:12:39.550 ACCIDENT - PROPERTY DAMAGE
18-1101556 2325 HERMES DR 2018-11-09 16:09:57.393 ALARM
18-1101555 18-12899 823 OAK ST 2018-11-09 16:07:06.627 ACCIDENT - HIT AND RUN
18-1101554 18-12895 475 ROBINS ST 2018-11-09 16:01:15.277 FRAUD
18-1101553 18-12897 1619 FLEMING ST 2018-11-09 15:55:49.880 ACCIDENT - PROPERTY DAMAGE
18-1101550 18-12894 210 6TH ST 2018-11-09 15:38:35.293 CRIMINAL MISCHIEF
18-1101549 18-12893 1200 E DAVE WARD DR 2018-11-09 15:38:34.180 ACCIDENT - PROPERTY DAMAGE
18-1101548 18-12896 3900 DAVE WARD DR 2018-11-09 15:34:09.697 SHOPLIFTING
18-1101545 18-12892 816 HOGAN LN 2018-11-09 15:11:26.920 THEFT OF PROPERTY
18-1101543 1105 PRAIRIE ST 2018-11-09 15:02:48.090 MISDEMEANOR WARRANT SERVICE
18-1101542 4949 PRINCE ST 2018-11-09 14:58:56.123 ALARM
18-1101541 1615 WESTLAKE DR 2018-11-09 14:54:16.063 ATTEMPT TO CONTACT
18-1101540 905 SKYLINE DR 2018-11-09 14:45:25.697 ATTEMPT TO CONTACT
18-1101539 2150 HARKRIDER ST 2018-11-09 14:44:24.587 SUPPLEMENT REPORT CALL
18-1101536 4095 PRINCE ST 2018-11-09 14:35:44.410 SUPPLEMENT REPORT CALL
18-1101535 655 ELSINGER BLVD 2018-11-09 14:32:41.157 BREAKING OR ENTERING
18-1101532 3900 DAVE WARD DR 2018-11-09 14:28:17.480 ATTEMPT TO CONTACT
18-1101531 800 EXCHANGE AV 2018-11-09 14:14:09.677 ALARM
18-1101530 705 4TH ST 2018-11-09 14:12:54.050 FIGHT
18-1101526 18-12887 2051 HARKRIDER ST 2018-11-09 13:38:54.113 ACCIDENT - PROPERTY DAMAGE
18-1101525 18-12889 801 ELSINGER BLVD 2018-11-09 13:37:36.617 SHOPLIFTING
18-1101524 18-12888 550 E DAVE WARD DR 2018-11-09 13:34:29.487 ACCIDENT - PROPERTY DAMAGE
18-1101520 18-12886 2200 MEADOWLAKE RD 2018-11-09 13:15:37.260 INDECENT EXPOSURE
18-1101519 18-12890 504 MONROE ST 2018-11-09 13:12:45.397 TRESPASSING
18-1101517 1201 OLD MORRILTON HWY 2018-11-09 12:59:25.160 TRESPASSING
18-1101516 1310 SALEM RD 2018-11-09 12:59:05.370 ATTEMPT TO CONTACT
18-1101515 799 S HOGAN LN 2018-11-09 12:36:25.650 TRAFFIC PROBLEM-CONTROL
18-1101513 1895 E OAK ST 2018-11-09 12:26:52.167 VEHICLE TOW
18-1101512 18-12883 500 AMITY RD 2018-11-09 12:25:25.500 THEFT OF PROPERTY
18-1101509 18-12882 4095 PRINCE ST 2018-11-09 12:17:25.967 FRAUD
18-1101508 2340 KRYSTAL KREEK DR 2018-11-09 12:14:37.660 ALARM
18-1101507 1105 PRAIRIE ST 2018-11-09 12:12:40.870 VEHICLE TOW
18-1101506 1090 SKYLINE DR 2018-11-09 12:12:06.977 ATTEMPT TO CONTACT
18-1101505 300 S DONAGHEY AV 2018-11-09 11:51:23.923 ATTEMPT TO CONTACT
18-1101501 81 MARY LN 2018-11-09 11:37:02.817 DOMESTIC DISTURBANCE
18-1101500 81 MARY LN 2018-11-09 11:31:52.483 CIVIL MATTER
18-1101499 4949 PRINCE ST 2018-11-09 11:22:18.780 ALARM
18-1101496 2210 NATURE TRL 2018-11-09 11:04:53.047 ALARM
18-1101495 1700 FAVRE LN 2018-11-09 11:04:49.520 SUSPICIOUS PERSON
18-1101491 18-12881 2100 DAVE WARD DR 2018-11-09 10:35:32.247 ACCIDENT - PROPERTY DAMAGE
18-1101490 810 SPRUCE ST 2018-11-09 10:33:04.890 REPOSSESSION
18-1101489 14 TIMBERLANE TRL 2018-11-09 10:30:27.633 SUPPLEMENT REPORT CALL
18-1101487 400 E DAVE WARD DR 2018-11-09 10:27:51.520 ACCIDENT - PROPERTY DAMAGE
18-1101486 1710 S SALEM RD 2018-11-09 10:25:26.727 SUPPLEMENT REPORT CALL
18-1101481 1955 KEATHLEY DR 2018-11-09 09:58:22.227 ATTEMPT TO CONTACT
18-1101480 1023 MAIN ST 2018-11-09 09:54:05.207 SUPPLEMENT REPORT CALL
18-1101478 1310 SALEM RD 2018-11-09 09:40:42.190 ATTEMPT TO CONTACT
18-1101477 18-12880 707 ROBINS ST 2018-11-09 09:38:37.927 AGENCY ASSIST
18-1101476 1435 BLUSTERY WAY 2018-11-09 09:35:59.483 LOUD NOISE-MUSIC
18-1101475 14 TIMBERLANE TRL 2018-11-09 09:33:49.090 SUPPLEMENT REPORT CALL
18-1101473 1620 MIDDLE RD 2018-11-09 09:32:04.080 ATTEMPT TO CONTACT
18-1101471 18-12878 414 OAK ST 2018-11-09 09:15:58.823 FRAUD
18-1101469 207 WILLOW ST 2018-11-09 09:11:26.570 SERVING SUBPOENA
18-1101467 155 FARRIS RD 2018-11-09 08:59:05.873 VEHICLE TOW
18-1101466 1818 SIMMS ST 2018-11-09 08:54:10.767 SUSPICIOUS PERSON
18-1101463 18-12877 2740 COLLEGE AV 2018-11-09 08:31:41.630 ACCIDENT - PRIVATE PROPERTY
18-1101462 18-12875 1508 HAIRSTON PL 2018-11-09 08:30:54.560 ACCIDENT - PRIVATE PROPERTY
18-1101461 18-12876 3070 PRINCE ST 2018-11-09 08:30:13.027 CRIMINAL MISCHIEF
18-1101460 124 I40WB 2018-11-09 08:28:09.477 ATTEMPT TO CONTACT
18-1101454 350 SALEM RD 2018-11-09 07:40:24.010 ALARM
18-1101452 1620 MIDDLE RD 2018-11-09 07:08:24.273 CHECKING PERSON
18-1101451 1055 EDINBURGH DR 2018-11-09 07:05:31.617 ALARM
18-1101449 501 DONAGHEY AV 2018-11-09 06:49:29.960 STALLED VEHICLE
18-1101447 18-12873 199 WASSON RD 2018-11-09 06:35:23.050 ACCIDENT - PROPERTY DAMAGE
18-1101444 18-12872 905 SKYLINE DR 2018-11-09 06:12:25.927 CHECK ON THE WELFARE
18-1101443 2670 DONAGHEY AV 2018-11-09 05:47:43.193 ALARM
18-1101441 3055 DAVE WARD DR 2018-11-09 05:12:11.910 CITIZEN ASSIST
18-1101439 3700 JEANNA DR 2018-11-09 04:21:29.150 DISTURBANCE
18-1101438 1702 CLIFTON ST 2018-11-09 04:19:01.260 ATTEMPT TO CONTACT
18-1101437 18-12871 2799 SALEM RD 2018-11-09 03:49:20.440 ACCIDENT - PROPERTY DAMAGE
18-1101436 818 E OAK ST 2018-11-09 03:30:38.603 911 HANGUP CALL
18-1101434 2100 HAIRSTON AV 2018-11-09 02:55:40.380 LOUD NOISE-MUSIC
18-1101433 18-12870 401 2ND ST 2018-11-09 02:48:35.680 BREAKING OR ENTERING
18-1101432 705 4TH ST 2018-11-09 02:42:21.247 ALARM
18-1101430 350 DONAGHEY AV 2018-11-09 02:16:35.097 DISTURBANCE
18-1101429 1170 S AMITY RD 2018-11-09 02:02:19.170 ALARM
18-1101428 707 ROBINS ST 2018-11-09 00:42:08.080 CHECKING PERSON
18-1101425 530 S DONAGHEY AV 2018-11-08 23:48:18.287 LOUD NOISE-MUSIC
18-1101424 800 MUSEUM RD 2018-11-08 23:38:54.913 ALARM
18-1101423 2102 SUGAR CREEK DR 2018-11-08 23:30:48.147 AGENCY ASSIST
18-1101420 18-12869 2101 PRINCE ST 2018-11-08 23:10:13.247 ACCIDENT - PROPERTY DAMAGE
18-1101419 1921 DUNCAN ST 2018-11-08 22:24:33.770 LOUD NOISE-MUSIC
18-1101418 1905 RICH SMITH LN 2018-11-08 22:06:35.980 CIVIL MATTER
18-1101414 2799 SALEM RD 2018-11-08 21:32:35.860 CHECKING VEHICLE
18-1101409 2799 SALEM RD 2018-11-08 20:51:31.223 CITIZEN ASSIST
18-1101407 1702 CLIFTON ST 2018-11-08 20:35:30.680 DOMESTIC DISTURBANCE
18-1101405 1200 BOB COURTWAY DR 2018-11-08 20:25:09.750 RECKLESS DRIVER
18-1101403 1352 COLLEGE AV 2018-11-08 20:01:09.830 CHECK ON THE WELFARE
18-1101399 3870 LEDBETTER DR 2018-11-08 19:32:39.903 BARKING DOG COMPLAINT
18-1101397 716 OAK ST 2018-11-08 18:32:25.333 SUSPICIOUS PERSON
18-1101394 3700 DAVE WARD DR 2018-11-08 18:01:39.277 RECKLESS DRIVER
18-1101393 18-12867 3301 IRBY DR 2018-11-08 17:48:55.163 ACCIDENT - PROPERTY DAMAGE
18-1101392 925 OAK ST 2018-11-08 17:41:00.240 CIVIL MATTER
18-1101391 18-12866 820 E OAK ST 2018-11-08 17:39:29.147 ACCIDENT - HIT AND RUN
18-1101390 1810 S SALEM RD 2018-11-08 17:34:55.360 SUSPICIOUS PERSON
18-1101388 18-12865 500 SOUTH GERMAN LN 2018-11-08 17:11:26.927 MISDEMEANOR WARRANT SERVICE
18-1101387 1300 GUERNSEY DR 2018-11-08 17:06:50.187 DOMESTIC DISTURBANCE
18-1101386 18-12864 3099 SALEM RD 2018-11-08 16:49:09.013 ACCIDENT - HIT AND RUN
18-1101385 18-12862 410 6TH ST 2018-11-08 16:47:59.860 CRIMINAL MISCHIEF
18-1101384 1921 JEFFERSON AV 2018-11-08 16:34:59.097 CIVIL STAND BY
18-1101383 2100 DAVE WARD DR 2018-11-08 16:23:00.980 ACCIDENT - PROPERTY DAMAGE
18-1101382 420 2ND AV 2018-11-08 16:21:00.363 CIVIL STAND BY
18-1101381 18-12859 2160 BLACKBERRY LN 2018-11-08 16:18:42.827 LOST PROPERTY
18-1101380 3910 TAILHOOK DR 2018-11-08 16:17:45.840 HARASSMENT
18-1101379 18-12860 1499 MANOR ST 2018-11-08 16:15:50.353 FRAUD
18-1101378 315 SHAW ST 2018-11-08 16:07:54.373 DOMESTIC DISTURBANCE
18-1101377 1525 CLIFTON ST 2018-11-08 15:57:31.643 CIVIL MATTER
18-1101376 18-12861 2425 DAVE WARD DR 2018-11-08 15:56:57.873 CRIMINAL MISCHIEF
18-1101374 2300 PRINCE ST 2018-11-08 15:48:39.640 ROAD RAGE
18-1101373 4106 MALLARD LN 2018-11-08 15:46:27.480 DOMESTIC DISTURBANCE
18-1101372 4106 MALLARD LN 2018-11-08 15:46:18.683 DOMESTIC DISTURBANCE
18-1101371 1040 S AMITY RD 2018-11-08 15:44:04.893 SUSPICIOUS PERSON
18-1101369 404 OLIVER ST 2018-11-08 15:42:19.020 CIVIL STAND BY
18-1101368 1313 BRUCE ST 2018-11-08 15:39:46.507 FOUND PROPERTY
18-1101367 18-12858 3680 DAVE WARD DR 2018-11-08 15:38:57.887 ACCIDENT - PROPERTY DAMAGE
18-1101366 1201 STURGIS RD 2018-11-08 15:36:43.843 SUSPICIOUS PERSON
18-1101365 801 ELSINGER BLVD 2018-11-08 15:36:42.760 CHECKING VEHICLE
18-1101364 18-12857 550 E DAVE WARD DR 2018-11-08 15:34:35.197 ACCIDENT - PROPERTY DAMAGE
18-1101363 18-12856 2500 DAVE WARD DR 2018-11-08 15:30:21.303 ACCIDENT - PROPERTY DAMAGE
18-1101360 1074 MARKHAM ST 2018-11-08 15:16:05.393 ATTEMPT TO CONTACT
18-1101359 2900 DAVE WARD DR 2018-11-08 15:05:51.230 STALLED VEHICLE
18-1101357 1620 MIDDLE RD 2018-11-08 15:02:18.557 ATTEMPT TO CONTACT
18-1101354 18-12853 1023 MAIN ST 2018-11-08 14:25:30.450 FORGERY
18-1101352 1410 ROBINS ST 2018-11-08 14:17:21.803 REPOSSESSION
18-1101348 201 SKYLINE DR 2018-11-08 14:00:35.370 ATTEMPT TO CONTACT
18-1101343 2925 PRINCE ST 2018-11-08 13:44:28.523 ALARM - BANK
18-1101342 18-12850 740 S HARKRIDER DR 2018-11-08 13:42:00.890 ACCIDENT - PROPERTY DAMAGE
18-1101339 215 SKYLINE DR 2018-11-08 13:36:14.793 CHECK ON THE WELFARE
18-1101337 18-12852 1105 SKYLINE DR 2018-11-08 13:30:02.290 CHECKING PERSON
18-1101335 1499 MANOR ST 2018-11-08 13:28:43.967 CIVIL MATTER
18-1101333 2590 DONAGHEY AV 2018-11-08 13:16:01.423 FRAUD
18-1101329 601 DAVE WARD DR 2018-11-08 13:00:29.217 RECKLESS DRIVER
18-1101328 120 E OAK ST 2018-11-08 12:55:29.663 TRESPASSING
18-1101327 1619 CLIFTON ST 2018-11-08 12:52:43.460 CHECKING VEHICLE
18-1101326 1620 MIDDLE RD 2018-11-08 12:49:07.837 BURGLARY
18-1101322 905 BROWNSTONE DR 2018-11-08 12:27:15.607 LOUD NOISE-MUSIC
18-1101317 1345 E OAK ST 2018-11-08 12:11:22.863 ACCIDENT - PEDESTRIAN
18-1101316 1450 HUEBNER ST 2018-11-08 12:01:57.507 ATTEMPT TO CONTACT
18-1101315 18-12846 601 DAVE WARD DR 2018-11-08 12:01:30.040 ACCIDENT - PROPERTY DAMAGE
18-1101312 1620 WESTLAKE DR 2018-11-08 11:53:14.913 CIVIL STAND BY
18-1101311 2205 STOUT ST 2018-11-08 11:52:08.727 CIVIL MATTER
18-1101310 1926 MARTIN ST 2018-11-08 11:50:41.647 REPOSSESSION
18-1101308 18-12845 1115 PARKWAY ST 2018-11-08 11:45:06.793 THEFT OF PROPERTY
18-1101307 401 2ND ST 2018-11-08 11:33:16.620 FOUND PROPERTY
18-1101302 18-12844 530 S DONAGHEY AV 2018-11-08 11:04:17.227 PROPERTY DAMAGE
18-1101299 714 HARKRIDER ST 2018-11-08 10:53:37.987 ABANDONED VEHICLE
18-1101298 615 FAULKNER ST 2018-11-08 10:48:36.403 CIVIL MATTER
18-1101297 850 OAK ST 2018-11-08 10:45:09.370 FOUND PROPERTY
18-1101296 18-12842 270 E SKYLINE DR 2018-11-08 10:38:00.083 ACCIDENT - PRIVATE PROPERTY
18-1101295 401 2ND ST 2018-11-08 10:34:00.470 ATTEMPT TO CONTACT
18-1101294 2350 SANDERS ST 2018-11-08 10:27:37.950 TERRORISTIC THREATENING
18-1101293 2217 ARKANSAS AV 2018-11-08 10:20:16.403 ALARM
18-1101291 1665 SOUTHERN HILLS DR 2018-11-08 09:37:58.580 SHOTS FIRED
18-1101290 1525 CLIFTON ST 2018-11-08 09:32:01.273 TERRORISTIC THREATENING
18-1101288 1855 DRURY LN 2018-11-08 09:24:31.040 ALARM
18-1101287 1023 MAIN ST 2018-11-08 09:20:02.110 FRAUD
18-1101281 2018-11-08 09:04:05.917 ROAD RAGE
18-1101280 160 S ASH ST 2018-11-08 08:57:32.390 ATTEMPT TO CONTACT
18-1101279 18-12840 220 E OAK ST 2018-11-08 08:56:07.757 ACCIDENT - PRIVATE PROPERTY
18-1101278 29 SHARON LN 2018-11-08 08:53:45.747 ALARM
18-1101277 860 DUWAYNE LN 2018-11-08 08:49:13.223 COMPUTER CRIMES
18-1101276 1815 PRINCE ST 2018-11-08 08:47:05.397 ATTEMPT TO CONTACT
18-1101275 1305 BLUSTERY WAY 2018-11-08 08:38:02.990 ATTEMPT TO CONTACT
18-1101274 1916 PRINCE ST 2018-11-08 08:37:09.603 THEFT OF PROPERTY
18-1101273 160 S ASH ST 2018-11-08 08:25:20.500 ATTEMPT TO CONTACT
18-1101271 941 LOCUST AV 2018-11-08 08:08:30.370 ABANDONED VEHICLE
18-1101269 3900 DAVE WARD DR 2018-11-08 08:06:42.493 FIRE DEPT ASSIST
18-1101267 2235 DAVE WARD DR 2018-11-08 08:01:31.913 SUPPLEMENT REPORT CALL
18-1101266 18-12837 955 SOUTH GERMAN LN 2018-11-08 07:53:52.090 DOMESTIC DISTURBANCE
18-1101265 1305 ACUFF LN 2018-11-08 07:50:07.120 FELONY WARRANT SERVICE
18-1101264 800 MAYOR LN 2018-11-08 07:12:32.250 PURSUIT DRILL
18-1101263 404 OLIVER ST 2018-11-08 07:07:25.477 ATTEMPT TO CONTACT
18-1101262 500 SOUTH GERMAN LN 2018-11-08 07:01:25.130 MISDEMEANOR WARRANT SERVICE
18-1101260 1701 HUTTO ST 2018-11-08 06:01:58.893 BARKING DOG COMPLAINT
18-1101259 CLIFTON ST 2018-11-08 04:58:52.860 BREAKING OR ENTERING
18-1101257 27 AZALEA LP 2018-11-08 03:04:20.330 REPOSSESSION
18-1101255 1500 DAVIS ST 2018-11-08 02:16:31.393 ATTEMPT TO CONTACT
18-1101254 2455 DONAGHEY AV 2018-11-08 02:00:25.630 ARMED SUBJECT
18-1101250 1510 OLD MORRILTON HWY 2018-11-08 00:18:08.310 SUPPLEMENT REPORT CALL
18-1101248 NUTTERS CHAPEL RD 2018-11-07 23:42:51.047 CHECKING VEHICLE
18-1101247 18-12836 500 SOUTH GERMAN LN 2018-11-07 23:39:35.203 MISDEMEANOR WARRANT SERVICE
18-1101246 815 HOGAN LN 2018-11-07 23:16:37.380 LOUD NOISE-MUSIC
18-1101244 1602 CHERRY ST 2018-11-07 23:01:24.123 911 HANGUP CALL
18-1101243 GRANDVIEW HEIGHTS DR 2018-11-07 22:33:41.553 CHECKING VEHICLE
18-1101241 1405 QUAIL CREEK DR 2018-11-07 22:09:27.917 SUSPICIOUS PERSON
18-1101240 305 BRUCE ST 2018-11-07 22:03:22.970 CHECKING PERSON
18-1101237 475 ROBINS ST 2018-11-07 21:41:56.920 ATTEMPT TO CONTACT
18-1101236 18-12835 2051 HARKRIDER ST 2018-11-07 21:41:13.397 ACCIDENT - PRIVATE PROPERTY
18-1101234 1805 E OAK ST 2018-11-07 21:18:23.513 SUPPLEMENT REPORT CALL
18-1101232 130 HARKRIDER ST 2018-11-07 21:03:04.270 AGENCY ASSIST
18-1101229 1901 E OAK ST 2018-11-07 20:49:42.537 SUPPLEMENT REPORT CALL
18-1101226 1256 HAMILTON ST 2018-11-07 20:26:57.960 AGENCY ASSIST
18-1101224 18-12833 4755 PRINCE ST 2018-11-07 20:09:48.800 ACCIDENT - HIT AND RUN
18-1101223 2850 STONEWOOD DR 2018-11-07 19:51:55.190 ATTEMPT TO CONTACT
18-1101218 545 SKYLINE DR 2018-11-07 19:29:06.900 SUSPICIOUS PERSON
18-1101216 18-12831 2170 HARKRIDER ST 2018-11-07 19:18:39.687 THEFT OF PROPERTY
18-1101215 27 SANDSTONE DR 2018-11-07 19:16:10.113 DOMESTIC DISTURBANCE
18-1101214 1655 DAVE WARD DR 2018-11-07 19:15:32.643 CHECK ON THE WELFARE
18-1101213 1305 E OAK ST 2018-11-07 19:15:17.090 CHECKING VEHICLE
18-1101212 18-12830 501 ELSINGER BLVD 2018-11-07 19:05:34.960 ACCIDENT - PRIVATE PROPERTY
18-1101211 18-12829 1900 TYLER ST 2018-11-07 18:44:38.990 INTERFERENCE WITH CUSTODY
18-1101210 300 S DONAGHEY AV 2018-11-07 18:28:48.137 BURGLARY
18-1101209 18-12828 1305 E OAK ST 2018-11-07 18:25:00.877 FIRE DEPT ASSIST
18-1101208 1305 E OAK ST 2018-11-07 18:24:55.730 AGENCY ASSIST
18-1101207 101 OAK ST 2018-11-07 18:24:29.020 CHECK ON THE WELFARE
18-1101206 2850 STONEWOOD DR 2018-11-07 18:14:12.260 SUSPICIOUS PERSON
18-1101204 3900 DAVE WARD DR 2018-11-07 18:10:04.280 ROAD RAGE
18-1101203 801 S SALEM RD 2018-11-07 17:58:52.373 SUSPICIOUS PERSON
18-1101201 18-12826 1200 DAVE WARD DR 2018-11-07 17:41:07.673 ACCIDENT - PERSONAL INJURY
18-1101200 1445 BLUSTERY WAY 2018-11-07 17:37:02.113 SUSPICIOUS PERSON
18-1101199 1305 E OAK ST 2018-11-07 17:35:15.287 SUSPICIOUS PACKAGE
18-1101196 18-12827 1701 DAVE WARD DR 2018-11-07 17:24:01.023 THEFT OF PROPERTY
18-1101195 289 ARROWHEAD LN 2018-11-07 17:21:39.827 CHECK ON THE WELFARE
18-1101194 401 2ND ST 2018-11-07 17:19:35.010 SUPPLEMENT REPORT CALL
18-1101193 1115 PARKWAY ST 2018-11-07 17:17:17.577 THEFT OF PROPERTY
18-1101190 1023 MAIN ST 2018-11-07 16:53:54.230 FRAUD
18-1101189 1201 MUSEUM RD 2018-11-07 16:47:06.993 CHECK ON THE WELFARE
18-1101188 18-12823 2300 PRINCE ST 2018-11-07 16:44:41.197 BATTERY REPORT
18-1101187 400 S DONAGHEY AV 2018-11-07 16:43:30.637 THEFT OF VEHICLE
18-1101186 18-12822 280 S ASH ST 2018-11-07 16:30:25.457 DOMESTIC DISTURBANCE
18-1101185 2100 KEATHLEY DR 2018-11-07 16:28:01.033 SHOTS FIRED
18-1101184 1601 HOGAN LN 2018-11-07 16:27:08.133 DOMESTIC DISTURBANCE
18-1101183 3202 PRINCE ST 2018-11-07 16:24:12.197 SUPPLEMENT REPORT CALL
18-1101182 2051 HARKRIDER ST 2018-11-07 16:21:45.557 DISTURBANCE
18-1101181 2150 HARKRIDER ST 2018-11-07 16:19:13.753 FRAUD
18-1101180 2300 PRINCE ST 2018-11-07 16:18:48.840 BATTERY REPORT
18-1101179 705 4TH ST 2018-11-07 16:11:34.347 HARASSING COMMUNICATIONS
18-1101177 2018-11-07 16:00:00.943 ATTEMPT TO CONTACT
18-1101171 18-12821 703 DONAGHEY AV 2018-11-07 15:29:38.600 ACCIDENT - PROPERTY DAMAGE
18-1101170 18-12820 401 2ND ST 2018-11-07 15:17:57.533 ROBBERY
18-1101167 200 E 6TH ST 2018-11-07 14:57:32.870 STALLED VEHICLE
18-1101166 18-12819 1420 HARDY ST 2018-11-07 14:52:19.390 ACCIDENT - PRIVATE PROPERTY
18-1101165 18-12818 801 ELSINGER BLVD 2018-11-07 14:42:17.417 INTOXICATED PERSON
18-1101162 3105 CLEBURNE CV 2018-11-07 14:29:53.000 CIVIL STAND BY
18-1101160 3060 PEBBLE BEACH DR 2018-11-07 14:15:48.340 THEFT OF PROPERTY
18-1101159 9 RIDGE RD 2018-11-07 14:06:06.117 FELONY WARRANT SERVICE
18-1101158 3100 IRBY DR 2018-11-07 13:57:22.783 HARASSMENT
18-1101157 520 S DAVIS ST 2018-11-07 13:48:50.743 SUPPLEMENT REPORT CALL
18-1101152 1155 CUMULUS DR 2018-11-07 13:30:17.980 ATTEMPT TO CONTACT
18-1101151 475 ROBINS ST 2018-11-07 13:23:46.030 TRESPASSING
18-1101150 2202 LOOKOUT AV 2018-11-07 13:18:42.890 ATTEMPT TO CONTACT
18-1101148 18-12816 500 SOUTH GERMAN LN 2018-11-07 13:17:18.540 MISDEMEANOR WARRANT SERVICE
18-1101147 1 BRIDGESTONE DR 2018-11-07 13:06:04.480 CHECK ON THE WELFARE
18-1101146 18-12815 551 HARKRIDER ST 2018-11-07 13:04:55.530 FRAUD
18-1101145 3105 CLEBURNE CV 2018-11-07 13:03:37.530 NO CONTACT ORDER VIOLATION
18-1101144 475 ROBINS ST 2018-11-07 13:02:40.463 ATTEMPT TO CONTACT
18-1101143 18-12814 1745 OLD MORRILTON HWY 2018-11-07 12:57:33.643 FRAUD
18-1101142 18-12813 551 HARKRIDER ST 2018-11-07 12:56:52.210 FRAUD
18-1101141 1620 MIDDLE RD 2018-11-07 12:52:28.133 INTOXICATED PERSON
18-1101140 475 ROBINS ST 2018-11-07 12:52:10.317 ATTEMPT TO CONTACT
18-1101139 475 ROBINS ST 2018-11-07 12:48:52.090 ATTEMPT TO CONTACT
18-1101138 3600 DONNELL RIDGE RD 2018-11-07 12:44:44.143 SUPPLEMENT REPORT CALL
18-1101137 18-12812 705 E SIEBENMORGEN RD 2018-11-07 12:27:24.807 ACCIDENT - PRIVATE PROPERTY
18-1101136 3105 CLEBURNE CV 2018-11-07 12:26:30.113 AGENCY ASSIST
18-1101135 2350 SANDERS ST 2018-11-07 12:23:34.007 ABANDONED VEHICLE
18-1101133 1025 S DONAGHEY AV 2018-11-07 12:18:52.190 AGENCY ASSIST
18-1101132 18-12810 1104 E OAK ST 2018-11-07 12:15:03.463 FRAUD
18-1101131 230 CONWAY BLVD 2018-11-07 12:10:57.983 BREAKING OR ENTERING
18-1101129 190 SKYLINE DR 2018-11-07 12:06:28.460 ATTEMPT TO CONTACT
18-1101128 2401 CHRISTINA LN 2018-11-07 12:02:24.430 SUSPICIOUS PERSON
18-1101124 18-12809 1612 RUSHING CIR 2018-11-07 11:49:55.130 DOMESTIC DISTURBANCE
18-1101123 1152 WOODSIDE DR 2018-11-07 11:40:01.113 ATTEMPT TO CONTACT
18-1101122 2300 HOGAN LN 2018-11-07 11:39:45.110 SUSPICIOUS VEHICLE
18-1101121 18-12806 1305 ACUFF LN 2018-11-07 11:36:56.563 ATTEMPT TO CONTACT
18-1101119 300 S DONAGHEY AV 2018-11-07 11:32:41.877 CIVIL MATTER
18-1101118 18-12807 513 5TH AV 2018-11-07 11:29:40.380 CRIMINAL MISCHIEF
18-1101117 3170 PEBBLE BEACH DR 2018-11-07 11:23:40.517 ATTEMPT TO CONTACT
18-1101112 1701 HAIRSTON AV 2018-11-07 10:34:01.527 TERRORISTIC THREATENING
18-1101111 1825 LUCILLE ST 2018-11-07 10:31:18.740 SUPPLEMENT REPORT CALL
18-1101110 18-12802 580 E DAVE WARD DR 2018-11-07 10:27:08.173 STALKING
18-1101108 320 ASH ST 2018-11-07 10:14:10.357 PARKING VIOLATION
18-1101107 1600 WESTLAKE DR 2018-11-07 10:10:29.880 REPOSSESSION
18-1101106 1150 WOODSIDE DR 2018-11-07 10:06:37.240 CHECK ON THE WELFARE
18-1101105 18-12800 350 S DONAGHEY AV 2018-11-07 09:48:52.303 ACCIDENT - PROPERTY DAMAGE
18-1101103 18-12799 1900 SANDERS ST 2018-11-07 09:29:57.450 ABANDONED VEHICLE
18-1101102 805 DONAGHEY AV 2018-11-07 09:28:27.410 ACCIDENT - PRIVATE PROPERTY
18-1101100 18-12798 805 DONAGHEY AV 2018-11-07 09:27:06.757 CHECK ON THE WELFARE
18-1101098 1416 PRINCE ST 2018-11-07 09:19:01.410 FOUND PROPERTY
18-1101097 18-12796 1304 GUERNSEY DR 2018-11-07 09:15:34.380 CRIMINAL MISCHIEF
18-1101095 1100 S AMITY RD 2018-11-07 09:04:04.877 ALARM
18-1101094 207 WILLOW ST 2018-11-07 09:01:47.520 ATTEMPT TO CONTACT
18-1101093 18-12795 2890 DAVE WARD DR 2018-11-07 08:42:49.140 ACCIDENT - PRIVATE PROPERTY
18-1101092 595 2ND AV 2018-11-07 08:37:30.697 CRIMINAL MISCHIEF
18-1101090 50 FAIRMONT DR 2018-11-07 08:28:26.007 DOMESTIC DISTURBANCE
18-1101089 475 ROBINS ST 2018-11-07 08:26:56.370 STALLED VEHICLE
18-1101087 18-12794 2125 HARKRIDER ST 2018-11-07 08:14:31.783 ACCIDENT - PRIVATE PROPERTY
18-1101086 207 WILLOW ST 2018-11-07 08:14:05.527 SERVING SUBPOENA
18-1101085 800 WALNUT ST 2018-11-07 07:57:45.300 SUPPLEMENT REPORT CALL
18-1101084 2425 DAVE WARD DR 2018-11-07 07:49:41.920 ALARM - HOLD UP or PANIC
18-1101083 18-12793 4101 PRINCE ST 2018-11-07 07:41:12.720 ACCIDENT - PROPERTY DAMAGE
18-1101080 18-12792 2780 ARROW SMITH LN 2018-11-07 07:20:07.340 BREAKING OR ENTERING
18-1101079 3155 DAVE WARD DR 2018-11-07 07:14:39.197 CITIZEN ASSIST
18-1101077 500 SOUTH GERMAN LN 2018-11-07 06:57:52.653 MISDEMEANOR WARRANT SERVICE
18-1101076 2908 PERCY CIR 2018-11-07 06:53:39.200 ALARM
18-1101075 375 E OAK ST 2018-11-07 05:14:20.967 TERRORISTIC THREATENING
18-1101074 18-12790 1825 LUCILLE ST 2018-11-07 04:58:12.380 THEFT OF PROPERTY
18-1101073 3155 DAVE WARD DR 2018-11-07 02:58:56.987 ALARM
18-1101072 1628 INDEPENDENCE AV 2018-11-07 02:33:40.087 REPOSSESSION
18-1101071 1155 SKYLINE DR 2018-11-07 02:31:18.407 REPOSSESSION
18-1101070 350 E OAK ST 2018-11-07 02:16:03.693 CHECKING VEHICLE
18-1101069 405 OAK ST 2018-11-07 02:06:08.640 CHECKING PERSON
18-1101068 1805 E OAK ST 2018-11-07 01:46:33.633 SUPPLEMENT REPORT CALL
18-1101066 720 S HARKRIDER DR 2018-11-07 00:46:46.977 ALARM
18-1101065 705 4TH ST 2018-11-07 00:38:53.827 DISTURBANCE
18-1101064 1321 HILLCREST DR 2018-11-07 00:24:59.850 SUSPICIOUS VEHICLE
18-1101061 1355 DONAGHEY AV 2018-11-06 23:46:39.193 SHOTS FIRED
18-1101059 530 S DONAGHEY AV 2018-11-06 22:54:37.430 LOUD NOISE-MUSIC
18-1101058 1700 MUSEUM RD 2018-11-06 22:47:38.633 LOG VEHICLE
18-1101057 1 CADRON SETTLEMENT PARK RD 2018-11-06 22:13:23.600 CHECKING BUILDING
18-1101056 4101 PRINCE ST 2018-11-06 22:02:23.080 STALLED VEHICLE
18-1101055 404 S HARKRIDER DR 2018-11-06 22:01:04.143 OPEN DOOR/WINDOW/FENCE
18-1101052 1155 SKYLINE DR 2018-11-06 21:32:19.470 ATTEMPT TO CONTACT
18-1101048 2370 SANDERS ST 2018-11-06 20:58:22.047 ATTEMPT TO CONTACT
18-1101047 9 PATTON CIR 2018-11-06 20:42:10.230 REPOSSESSION
18-1101046 2901 TYLER ST 2018-11-06 20:31:50.363 CHECK ON THE WELFARE
18-1101044 2125 MOIX BLVD 2018-11-06 20:22:39.967 CHECK ON THE WELFARE
18-1101043 18-12787 450 SKYLINE DR 2018-11-06 20:19:30.660 ACCIDENT - PRIVATE PROPERTY
18-1101042 18-12789 401 2ND ST 2018-11-06 20:19:29.130 ARMED SUBJECT
18-1101041 18-12788 2370 SANDERS ST 2018-11-06 20:10:27.310 DOMESTIC DISTURBANCE
18-1101040 151 SKYLINE DR 2018-11-06 20:09:24.770 TRAFFIC PROBLEM-CONTROL
18-1101039 504 E OAK ST 2018-11-06 20:00:37.820 RECKLESS DRIVER
18-1101038 1651 HAIRSTON AV 2018-11-06 19:59:19.910 LOUD NOISE-MUSIC
18-1101036 18-12785 1126 HARKRIDER ST 2018-11-06 19:42:01.217 THEFT OF PROPERTY
18-1101034 1600 WASHINGTON AV 2018-11-06 19:26:45.497 ATTEMPT TO CONTACT
18-1101033 18-12784 545 SKYLINE DR 2018-11-06 19:10:21.463 ACCIDENT - PERSONAL INJURY
18-1101031 18-12786 301 E DAVE WARD DR 2018-11-06 18:59:39.353 CHECK ON THE WELFARE
18-1101027 1110 E OAK ST 2018-11-06 18:26:31.413 SUSPICIOUS PERSON
18-1101026 18-12781 4402 DAVE WARD DR 2018-11-06 18:17:44.697 ACCIDENT - PROPERTY DAMAGE
18-1101025 1510 OLD MORRILTON HWY 2018-11-06 18:15:35.357 SUPPLEMENT REPORT CALL
18-1101024 1916 BRUCE ST 2018-11-06 18:14:31.020 CHECK ON THE WELFARE
18-1101022 18-12782 2845 PEBBLE BEACH DR 2018-11-06 18:10:31.843 DOMESTIC DISTURBANCE
18-1101021 28 SOUTHERLAND RD 2018-11-06 18:04:54.273 SUSPICIOUS PERSON
18-1101020 707 ROBINS ST 2018-11-06 17:50:33.357 TRESPASSING
18-1101018 1525 CLIFTON ST 2018-11-06 17:32:36.973 TRESPASSING
18-1101017 18-12780 3800 COLLEGE AV 2018-11-06 17:31:43.917 BATTERY REPORT
18-1101016 18-12779 1050 ELLIS AV 2018-11-06 17:29:38.850 ACCIDENT - PRIVATE PROPERTY
18-1101015 510 SOUTH GERMAN LN 2018-11-06 17:28:12.707 ATTEMPT TO CONTACT
18-1101014 1125 OAK ST 2018-11-06 17:27:15.783 ALARM
18-1101012 18-12778 1805 E OAK ST 2018-11-06 17:11:24.550 TERRORISTIC THREATENING
18-1101011 680 MUSEUM RD 2018-11-06 17:09:06.650 TRAFFIC PROBLEM-CONTROL
18-1101009 4475 THOMPSON ST 2018-11-06 16:34:08.783 CRIMINAL MISCHIEF
18-1101006 702 OAK ST 2018-11-06 16:21:10.173 STALLED VEHICLE
18-1101005 400 WILLOW ST 2018-11-06 16:15:01.683 FOUND PROPERTY
18-1101004 1305 ACUFF LN 2018-11-06 16:11:53.423 ATTEMPT TO CONTACT
18-1101003 36 BRIER SPRINGS DR 2018-11-06 16:05:03.300 SUSPICIOUS VEHICLE
18-1101002 2515 W MARTIN ST 2018-11-06 16:02:28.657 CIVIL STAND BY
18-1101000 18-12776 2425 SANDERS ST 2018-11-06 15:48:05.087 THEFT OF PROPERTY
18-1100996 18-12775 1701 HAIRSTON AV 2018-11-06 15:37:16.800 TERRORISTIC THREATENING
18-1100995 895 OAK ST 2018-11-06 15:36:50.763 ATTEMPT TO CONTACT
18-1100992 18-12773 315 HUBBARD RD 2018-11-06 15:27:06.980 FOUND PROPERTY
18-1100991 18-12774 480 EXCHANGE AV 2018-11-06 15:24:07.143 THEFT OF PROPERTY
18-1100988 529 3RD AV 2018-11-06 15:10:37.813 TERRORISTIC THREATENING
18-1100987 18-12772 309 EXCHANGE AV 2018-11-06 14:58:36.330 HARASSMENT
18-1100985 18-12769 655 ELSINGER BLVD 2018-11-06 14:47:48.977 FOUND PROPERTY
18-1100982 18-12770 1510 OLD MORRILTON HWY 2018-11-06 14:42:17.070 THEFT OF VEHICLE
18-1100981 18-12771 2695 DAVE WARD DR 2018-11-06 14:38:00.607 ATTEMPT TO CONTACT
18-1100978 18-12766 1105 PRAIRIE ST 2018-11-06 14:31:46.613 ABUSE
18-1100977 1155 SKYLINE DR 2018-11-06 14:30:22.310 THEFT OF VEHICLE
18-1100976 601 DAVE WARD DR 2018-11-06 14:26:54.673 ATTEMPT TO CONTACT
18-1100972 2315 WASHINGTON AV 2018-11-06 14:20:07.217 STALLED VEHICLE
18-1100971 18-12765 1217 WATKINS ST 2018-11-06 14:18:38.157 ABUSE
18-1100969 18-12767 400 E DAVE WARD DR 2018-11-06 14:10:33.077 ACCIDENT - PROPERTY DAMAGE
18-1100966 18-12764 1100 S AMITY RD 2018-11-06 13:23:57.213 ACCIDENT - PRIVATE PROPERTY
18-1100963 1101 OLD MORRILTON HWY 2018-11-06 12:54:01.700 CHECKING PERSON
18-1100962 1510 OLD MORRILTON HWY 2018-11-06 12:49:42.053 THEFT OF VEHICLE
18-1100960 2109 BROADVIEW AV 2018-11-06 12:44:10.990 SERVING SUBPOENA
18-1100959 2101 PRINCE ST 2018-11-06 12:40:36.910 CHECKING PERSON
18-1100958 18-12760 2514 COLLEGE AV 2018-11-06 12:32:00.783 SUSPICIOUS PERSON
18-1100957 2125 CALDWELL ST 2018-11-06 12:30:47.450 SERVING SUBPOENA
18-1100956 2123 CALDWELL ST 2018-11-06 12:30:23.783 SERVING SUBPOENA
18-1100955 2120 HAIRSTON AV 2018-11-06 12:29:28.140 SUPPLEMENT REPORT CALL
18-1100954 1816 INDEPENDENCE AV 2018-11-06 12:19:12.610 SERVING SUBPOENA
18-1100953 430 GARLAND ST 2018-11-06 12:18:59.443 CIVIL STAND BY
18-1100951 4298 SALEM RD 2018-11-06 12:05:29.337 RECKLESS DRIVER
18-1100950 480 EXCHANGE AV 2018-11-06 11:36:02.667 THEFT OF PROPERTY
18-1100948 2475 SANDERS ST 2018-11-06 11:23:39.530 CHECKING VEHICLE
18-1100946 1250 S AMITY RD 2018-11-06 11:16:09.813 NO CONTACT ORDER VIOLATION
18-1100945 1955 KEATHLEY DR 2018-11-06 11:11:49.510 DOMESTIC DISTURBANCE
18-1100942 18-12758 2120 HAIRSTON AV 2018-11-06 11:02:05.180 CRIMINAL MISCHIEF
18-1100939 1201 OAK ST 2018-11-06 10:43:05.600 CIVIL MATTER
18-1100935 1625 HIGHPOINT DR 2018-11-06 10:14:22.987 SUPPLEMENT REPORT CALL
18-1100934 1321 DAVIS ST 2018-11-06 10:08:09.100 ALARM
18-1100932 1335 SUNSET DR 2018-11-06 09:52:48.233 DOMESTIC DISTURBANCE
18-1100931 2120 CEDAR OAKS DR 2018-11-06 09:50:44.823 SERVING SUBPOENA
18-1100927 4995 SHEPHERDS CREEK DR 2018-11-06 09:25:13.790 SERVING SUBPOENA
18-1100925 1950 ERBACH ST 2018-11-06 09:06:20.687 RECOVERED VEHICLE
18-1100924 18-12755 1306 S DONAGHEY AV 2018-11-06 09:01:21.010 ACCIDENT - PRIVATE PROPERTY
18-1100919 401 2ND ST 2018-11-06 07:58:43.890 TRESPASSING
18-1100917 800 S DONAGHEY AV 2018-11-06 07:49:15.520 TRAFFIC PROBLEM-CONTROL
18-1100915 1106 DONAGHEY AV 2018-11-06 07:42:30.933 TRAFFIC PROBLEM-CONTROL
18-1100912 18-12754 1625 HIGHPOINT DR 2018-11-06 06:45:16.967 THEFT OF VEHICLE
18-1100911 1600 WESTLAKE DR 2018-11-06 05:43:08.147 STALLED VEHICLE
18-1100910 2670 DONAGHEY AV 2018-11-06 05:00:24.753 ALARM
18-1100909 905 SKYLINE DR 2018-11-06 04:44:20.237 ALARM
18-1100908 1217 FRONT ST 2018-11-06 04:22:16.017 ALARM
18-1100907 18-12753 2155 APACHE TRL 2018-11-06 03:33:53.760 CHECKING VEHICLE
18-1100906 1600 E DAVE WARD DR 2018-11-06 03:29:16.517 CHECKING VEHICLE
18-1100904 625 SALEM RD 2018-11-06 02:16:23.527 ALARM
18-1100903 1506 DAVE WARD DR 2018-11-06 02:11:11.900 OPEN DOOR/WINDOW/FENCE
18-1100902 1405 S DONAGHEY AV 2018-11-06 02:09:54.290 LOUD NOISE-MUSIC
18-1100901 2810 STONEWOOD DR 2018-11-06 02:04:58.903 RECKLESS DRIVER
18-1100900 18-12751 1310 STONE CREST DR 2018-11-06 02:04:35.223 CRIMINAL MISCHIEF
18-1100899 80 EXCHANGE AV 2018-11-06 02:00:52.767 CHECKING VEHICLE
18-1100898 2150 HARKRIDER ST 2018-11-06 01:27:22.490 ALARM - BANK
18-1100896 1025 S AMITY RD 2018-11-05 23:16:32.147 ALARM
18-1100895 2495 EIGHTEEN LP 2018-11-05 23:12:44.260 ALARM - HOLD UP or PANIC
18-1100894 2299 E OAK ST 2018-11-05 22:55:55.430 RECKLESS DRIVER
18-1100893 1266 S AMITY RD 2018-11-05 22:37:41.917 ALARM
18-1100892 300 S DONAGHEY AV 2018-11-05 22:19:59.680 DISTURBANCE
18-1100891 1 CADRON SETTLEMENT PARK RD 2018-11-05 22:07:50.973 CHECKING BUILDING
18-1100890 300 S DONAGHEY AV 2018-11-05 22:07:02.520 BURGLARY
18-1100889 835 S DONAGHEY AV 2018-11-05 22:01:00.100 911 HANGUP CALL
18-1100888 1420 GARDENIA 2018-11-05 21:59:16.097 ATTEMPT TO CONTACT
18-1100886 2415 WASHINGTON AV 2018-11-05 21:28:32.050 FIGHT
18-1100885 3430 IRBY DR 2018-11-05 21:24:36.723 SUSPICIOUS ACTIVITY
18-1100883 1335 JOSITA CIR 2018-11-05 21:10:17.400 BARKING DOG COMPLAINT
18-1100882 1105 PRAIRIE ST 2018-11-05 20:33:02.840 SUPPLEMENT REPORT CALL
18-1100880 25 NABCO DR 2018-11-05 20:05:31.500 ALARM - HOLD UP or PANIC
18-1100878 1335 JOSITA CIR 2018-11-05 19:48:00.607 CHECK ON THE WELFARE
18-1100877 3195 STONE RD 2018-11-05 19:37:21.693 ATTEMPT TO CONTACT
18-1100875 1365 MITCHELL ST 2018-11-05 19:32:13.093 DOMESTIC DISTURBANCE
18-1100874 1525 CLIFTON ST 2018-11-05 19:27:42.887 TERRORISTIC THREATENING
18-1100873 18-12750 1300 GUERNSEY DR 2018-11-05 19:25:15.000 CIVIL MATTER
18-1100872 18-12748 223 GRIFFITH ST 2018-11-05 19:03:10.653 THEFT OF VEHICLE
18-1100871 201 SKYLINE DR 2018-11-05 18:54:47.927 ATTEMPT TO CONTACT
18-1100870 2000 JOSH DR 2018-11-05 18:43:23.977 SUSPICIOUS ACTIVITY
18-1100869 119 OAKLAWN DR 2018-11-05 18:41:18.460 DOMESTIC DISTURBANCE
18-1100867 18-12747 401 2ND ST 2018-11-05 18:07:43.937 DOMESTIC DISTURBANCE
18-1100866 201 SKYLINE DR 2018-11-05 17:55:37.007 DISTURBANCE
18-1100865 18-12744 799 S HOGAN LN 2018-11-05 17:48:08.727 ACCIDENT - PROPERTY DAMAGE
18-1100864 18-12746 810 2ND AV 2018-11-05 17:42:47.523 BURGLARY
18-1100863 18-12745 502 6TH ST 2018-11-05 17:40:59.960 BREAKING OR ENTERING
18-1100862 3100 IRBY DR 2018-11-05 17:09:32.390 SERVING SUBPOENA
18-1100861 1000 S AMITY RD 2018-11-05 17:09:22.953 SUPPLEMENT REPORT CALL
18-1100860 18-12743 1815 PRINCE ST 2018-11-05 16:55:25.437 TERRORISTIC THREATENING
18-1100859 18-12742 124 I40WB 2018-11-05 16:52:07.550 ACCIDENT - PROPERTY DAMAGE
18-1100858 6 W POST OAK DR 2018-11-05 16:47:22.133 ALARM
18-1100857 18-12738 1825 LUCILLE ST 2018-11-05 16:45:38.830 HARASSMENT
18-1100856 18-12739 501 COUNTRY CLUB RD 2018-11-05 16:31:30.313 ACCIDENT - PROPERTY DAMAGE
18-1100855 1105 PRAIRIE ST 2018-11-05 16:28:21.320 SERVING SUBPOENA
18-1100854 18-12741 1525 CLIFTON ST 2018-11-05 16:22:04.393 BATTERY REPORT
18-1100853 1360 TORREYSON ST 2018-11-05 16:13:57.940 ATTEMPT TO CONTACT
18-1100851 1417 CLIFTON ST 2018-11-05 15:58:25.743 ATTEMPT TO CONTACT
18-1100850 18-12737 2200 WASHINGTON AV 2018-11-05 15:56:55.530 BREAKING OR ENTERING
18-1100848 18-12736 2005 CALDWELL ST 2018-11-05 15:45:58.193 THEFT OF PROPERTY
18-1100846 18-12735 1080 FENDLEY DR 2018-11-05 15:39:46.303 ACCIDENT - PRIVATE PROPERTY
18-1100845 401 2ND ST 2018-11-05 15:39:12.547 DOMESTIC DISTURBANCE
18-1100843 525 SKYLINE DR 2018-11-05 15:23:36.030 ALARM - HOLD UP or PANIC
18-1100842 18-12733 1655 DAVE WARD DR 2018-11-05 15:18:32.220 ACCIDENT - HIT AND RUN
18-1100841 18-12732 501 DONAGHEY AV 2018-11-05 15:18:20.817 ACCIDENT - PROPERTY DAMAGE
18-1100840 1305 MARISSA ST 2018-11-05 15:15:46.720 CIVIL STAND BY
18-1100839 18-12734 380 HARKRIDER ST 2018-11-05 15:14:28.347 ACCIDENT - PRIVATE PROPERTY
18-1100836 18-12731 375 E OAK ST 2018-11-05 15:09:31.260 HARASSMENT
18-1100835 18-12730 1301 COLLEGE AV 2018-11-05 15:00:55.553 ATTEMPT TO CONTACT
18-1100834 1284 S AMITY RD 2018-11-05 14:46:54.950 SUPPLEMENT REPORT CALL
18-1100833 18-12728 655 ELSINGER BLVD 2018-11-05 14:32:15.810 THEFT OF PROPERTY
18-1100832 18-12727 1155 SKYLINE DR 2018-11-05 14:29:28.780 THEFT OF PROPERTY
18-1100831 530 S DONAGHEY AV 2018-11-05 14:24:31.150 SUSPICIOUS VEHICLE
18-1100830 18-12729 707 ROBINS ST 2018-11-05 14:22:23.447 AGENCY ASSIST
18-1100829 18-12726 1105 DAVE WARD DR 2018-11-05 14:22:17.363 ACCIDENT - PROPERTY DAMAGE
18-1100827 21 GLENDALE DR 2018-11-05 13:52:06.173 SERVING SUBPOENA
18-1100826 18-12725 350 DONAGHEY AV 2018-11-05 13:48:44.830 ACCIDENT - HIT AND RUN
18-1100825 18-12723 2150 HARKRIDER ST 2018-11-05 13:42:41.047 FRAUD
18-1100824 18-12724 770 EAST GERMAN LN 2018-11-05 13:42:15.633 ATTEMPT TO CONTACT
18-1100823 18-12722 2302 COLLEGE AV 2018-11-05 13:42:15.587 THEFT OF PROPERTY
18-1100820 395 EAST GERMAN LN 2018-11-05 13:12:24.800 ACCIDENT - PROPERTY DAMAGE
18-1100819 18-12721 245 OAK ST 2018-11-05 13:10:37.490 SHOPLIFTING
18-1100818 18-12720 400 EAST GERMAN LN 2018-11-05 13:05:21.620 ACCIDENT - PROPERTY DAMAGE
18-1100814 18-12719 3501 COLLEGE AV 2018-11-05 12:55:29.257 ABUSE
18-1100813 18-12718 305 BRUCE ST 2018-11-05 12:48:33.580 THEFT OF PROPERTY
18-1100811 18-12717 800 5TH ST 2018-11-05 12:35:01.490 ACCIDENT - PEDESTRIAN
18-1100810 1819 SCOTT ST 2018-11-05 12:26:56.923 CHECK ON THE WELFARE
18-1100809 2224 ARKANSAS AV 2018-11-05 12:17:43.420 REPOSSESSION
18-1100808 1284 S AMITY RD 2018-11-05 12:08:48.807 SUPPLEMENT REPORT CALL
18-1100807 708 2ND ST 2018-11-05 11:56:09.977 CIVIL MATTER
18-1100806 39 DENDRON ST 2018-11-05 11:54:25.050 SUPPLEMENT REPORT CALL
18-1100805 18-12716 1105 PRAIRIE ST 2018-11-05 11:52:02.810 ATTEMPT TO CONTACT
18-1100802 18-12715 1405 S DONAGHEY AV 2018-11-05 11:36:44.140 CHECK ON THE WELFARE
18-1100800 2102 BRUCE ST 2018-11-05 11:28:31.010 ACCIDENT - PEDESTRIAN
18-1100798 18-12714 820 E OAK ST 2018-11-05 11:22:32.897 ACCIDENT - PRIVATE PROPERTY
18-1100797 823 OAK ST 2018-11-05 11:19:08.053 SUPPLEMENT REPORT CALL
18-1100796 18-12712 220 SKYLINE DR 2018-11-05 11:16:36.310 FRAUD
18-1100795 18-12713 1900 COLLEGE AV 2018-11-05 11:12:26.790 ACCIDENT - PROPERTY DAMAGE
18-1100791 350 S DONAGHEY AV 2018-11-05 10:57:16.903 ATTEMPT TO CONTACT
18-1100790 1105 PRAIRIE ST 2018-11-05 10:54:27.753 HARASSING COMMUNICATIONS
18-1100788 1607 INDEPENDENCE ST 2018-11-05 10:49:56.767 SUPPLEMENT REPORT CALL
18-1100787 1002 E OAK ST 2018-11-05 10:49:00.840 DOMESTIC DISTURBANCE
18-1100781 801 DONAGHEY AV 2018-11-05 10:28:08.347 SUSPICIOUS PACKAGE
18-1100780 1405 S DONAGHEY AV 2018-11-05 10:24:50.430 ATTEMPT TO CONTACT
18-1100779 19 G TOWN RD 2018-11-05 10:19:53.983 ATTEMPT TO CONTACT
18-1100778 18-12711 1815 PRINCE ST 2018-11-05 09:58:00.853 TERRORISTIC THREATENING
18-1100776 461 HARKRIDER ST 2018-11-05 09:35:35.680 ROAD RAGE
18-1100775 3935 RUPERT DR 2018-11-05 09:32:41.973 ATTEMPT TO CONTACT
18-1100774 2018-11-05 09:30:47.063 ATTEMPT TO CONTACT
18-1100773 401 HEREFORD ST 2018-11-05 09:28:28.240 ATTEMPT TO CONTACT
18-1100771 1601 HOGAN LN 2018-11-05 09:16:30.907 HARASSING COMMUNICATIONS
18-1100769 18-12710 1272 SUTTON ST 2018-11-05 09:11:38.140 CRIMINAL MISCHIEF
18-1100768 2108 SUGAR CREEK DR 2018-11-05 09:08:19.240 CIVIL MATTER
18-1100767 900 SOUTH GERMAN LN 2018-11-05 09:06:19.650 ROAD RAGE
18-1100766 2850 PRINCE ST 2018-11-05 09:06:08.170 ALARM
18-1100763 2420 BROADVIEW AV 2018-11-05 08:44:07.630 SUPPLEMENT REPORT CALL
18-1100762 1501 HARKRIDER ST 2018-11-05 08:37:43.557 STALLED VEHICLE
18-1100761 18-12708 1305 S HARKRIDER DR 2018-11-05 08:27:23.270 BURGLARY
18-1100758 350 SALEM RD 2018-11-05 07:27:12.930 ALARM
18-1100757 2025 CALDWELL ST 2018-11-05 07:25:50.907 CIVIL MATTER
18-1100756 302 ANGUS ST 2018-11-05 07:23:22.940 CIVIL STAND BY
18-1100755 18-12705 625 INGRAM ST 2018-11-05 07:18:02.390 ACCIDENT - PRIVATE PROPERTY
18-1100754 18-12706 39 DENDRON ST 2018-11-05 07:13:49.017 TERRORISTIC THREATENING
18-1100752 18-12703 1607 INDEPENDENCE ST 2018-11-05 06:03:27.953 THEFT OF VEHICLE
18-1100751 1305 S HARKRIDER DR 2018-11-05 04:47:53.737 ALARM
18-1100750 5 WHITE OAK DR 2018-11-05 04:32:47.283 SUSPICIOUS ACTIVITY
18-1100749 601 ELSINGER BLVD 2018-11-05 04:30:12.983 ALARM
18-1100747 1155 SKYLINE DR 2018-11-05 03:24:25.077 SHOPLIFTING
18-1100746 18-12702 1305 MARISSA ST 2018-11-05 02:26:50.173 CIVIL MATTER
18-1100745 1305 MARISSA ST 2018-11-05 02:16:32.913 CIVIL MATTER
18-1100744 18-12700 1555 EXCHANGE AV 2018-11-05 02:11:58.430 AGENCY ASSIST
18-1100743 18-12701 116 HARKRIDER ST 2018-11-05 02:03:17.173 CHECKING PERSON
18-1100742 1305 MARISSA ST 2018-11-05 01:57:05.567 CIVIL MATTER
18-1100741 101 HARKRIDER ST 2018-11-05 00:47:54.903 CHECKING PERSON
18-1100740 711 FAIRVIEW ST 2018-11-05 00:19:30.667 ATTEMPT TO CONTACT
18-1100739 515 HARKRIDER ST 2018-11-05 00:15:33.627 SUSPICIOUS PERSON
18-1100738 605 1ST AV 2018-11-05 00:06:11.480 CHECK ON THE WELFARE
18-1100737 701 1ST AV 2018-11-05 00:02:10.787 PROWLER
18-1100736 134 HARKRIDER ST 2018-11-05 00:01:32.007 SUSPICIOUS PERSON
18-1100732 505 3RD AV 2018-11-04 21:50:18.607 CRIMINAL MISCHIEF
18-1100731 2018-11-04 21:48:09.267 ATTEMPT TO CONTACT
18-1100729 371 WATKINS ST 2018-11-04 21:18:29.060 SHOTS FIRED
18-1100728 2570 HARBELLE DR 2018-11-04 21:09:01.297 SUSPICIOUS VEHICLE
18-1100727 1510 HATHAWAY DR 2018-11-04 21:08:41.907 TERRORISTIC THREATENING
18-1100726 2475 SANDERS ST 2018-11-04 21:06:14.890 ATTEMPT TO CONTACT
18-1100724 1715 TYLER ST 2018-11-04 20:52:45.843 SUPPLEMENT REPORT CALL
18-1100719 1930 RICH SMITH LN 2018-11-04 20:01:24.283 UNKNOWN TROUBLE
18-1100717 18-12698 1102 OLD MORRILTON HWY 2018-11-04 19:48:40.733 ACCIDENT - PROPERTY DAMAGE
18-1100716 1623 WESTLAKE DR 2018-11-04 19:39:30.573 DOMESTIC DISTURBANCE
18-1100715 2164 HARKRIDER ST 2018-11-04 19:14:16.427 ATTEMPT TO CONTACT
18-1100714 600 E DAVE WARD DR 2018-11-04 19:11:57.133 STALLED VEHICLE
18-1100712 4010 IRBY DR 2018-11-04 18:55:50.603 LOUD NOISE-MUSIC
18-1100711 2080 BROADVIEW AV 2018-11-04 18:55:17.627 SUSPICIOUS ACTIVITY
18-1100708 150 SKYLINE DR 2018-11-04 18:33:48.160 STALLED VEHICLE
18-1100707 18-12695 3900 DAVE WARD DR 2018-11-04 18:30:50.087 INDECENT EXPOSURE
18-1100706 18-12697 2006 WIGGLE WORM RD 2018-11-04 18:26:08.320 HARASSING COMMUNICATIONS
18-1100704 801 S SALEM RD 2018-11-04 18:20:51.220 STALLED VEHICLE
18-1100703 18-12694 2560 DONAGHEY AV 2018-11-04 18:14:36.787 FIGHT
18-1100701 1265 HARKRIDER ST 2018-11-04 18:02:14.693 ATTEMPT TO CONTACT
18-1100700 530 S DONAGHEY AV 2018-11-04 17:55:53.510 SHOTS FIRED
18-1100699 545 SKYLINE DR 2018-11-04 17:55:52.807 CITIZEN ASSIST
18-1100698 300 S DONAGHEY AV 2018-11-04 17:55:08.643 SHOTS FIRED
18-1100697 18-12692 501 MONROE ST 2018-11-04 17:54:50.593 ACCIDENT - PROPERTY DAMAGE
18-1100696 18-12693 1155 SKYLINE DR 2018-11-04 17:39:23.313 ACCIDENT - PRIVATE PROPERTY
18-1100695 18-12691 766 HARKRIDER ST 2018-11-04 17:37:40.510 CHECK ON THE WELFARE
18-1100693 1284 S AMITY RD 2018-11-04 17:29:56.113 ATTEMPT TO CONTACT
18-1100692 1345 E OAK ST 2018-11-04 17:24:34.223 ACCIDENT - PEDESTRIAN
18-1100691 18-12690 2550 PRINCE ST 2018-11-04 17:17:55.533 THEFT OF PROPERTY
18-1100690 18-12689 1325 ROBINS ST 2018-11-04 16:19:10.107 LOST-STOLEN LICENSE PLATE
18-1100687 18-12688 831 SKYLINE DR 2018-11-04 15:30:36.837 ACCIDENT - PROPERTY DAMAGE
18-1100686 1121 GUM ST 2018-11-04 15:20:42.103 UNKNOWN TROUBLE
18-1100683 1614 WESTLAKE DR 2018-11-04 14:46:02.343 CIVIL STAND BY
18-1100682 18-12687 1565 E OAK ST 2018-11-04 14:32:21.737 ACCIDENT - PROPERTY DAMAGE
18-1100680 5205 SHAKESPEARE DR 2018-11-04 14:28:05.270 DOMESTIC DISTURBANCE
18-1100678 18-12685 825 3RD AV 2018-11-04 14:22:25.143 CHECKING PERSON
18-1100677 324 SOUTH GERMAN LN 2018-11-04 14:20:06.477 ALARM
18-1100675 132 I40WB 2018-11-04 13:54:28.317 INTOXICATED DRIVER
18-1100673 2300 HOGAN LN 2018-11-04 13:34:37.397 SUSPICIOUS PERSON
18-1100672 2235 DAVE WARD DR 2018-11-04 13:31:55.267 ATTEMPT TO CONTACT
18-1100667 18-12682 3600 DONNELL RIDGE RD 2018-11-04 13:11:25.097 ACCIDENT - PROPERTY DAMAGE
18-1100666 18-12681 3900 DAVE WARD DR 2018-11-04 13:11:14.927 THEFT OF PROPERTY
18-1100660 2500 PINNACLE RIDGE RD 2018-11-04 12:15:12.110 ALARM
18-1100658 1105 PRAIRIE ST 2018-11-04 12:04:51.183 ATTEMPT TO CONTACT
18-1100657 1090 SKYLINE DR 2018-11-04 12:02:10.957 TRESPASSING
18-1100656 230 ARBAUGH DR 2018-11-04 11:50:06.850 911 HANGUP CALL
18-1100655 1360 TORREYSON ST 2018-11-04 11:44:42.933 ATTEMPT TO CONTACT
18-1100654 2235 DAVE WARD DR 2018-11-04 11:41:05.733 ATTEMPT TO CONTACT
18-1100653 2799 SALEM RD 2018-11-04 11:37:30.330 ACCIDENT - PROPERTY DAMAGE
18-1100652 1115 PARKWAY ST 2018-11-04 11:33:58.280 THEFT OF PROPERTY
18-1100650 220 E OAK ST 2018-11-04 11:20:52.490 ACCIDENT - PRIVATE PROPERTY
18-1100649 18-12678 2299 DAVE WARD DR 2018-11-04 11:13:25.083 ACCIDENT - PROPERTY DAMAGE
18-1100643 724 OAK ST 2018-11-04 10:28:05.567 LOITERING
18-1100641 810 PARKWAY ST 2018-11-04 10:22:24.160 ATTEMPT TO CONTACT
18-1100640 38 ED SPEAKER RD 2018-11-04 10:14:57.017 ALARM
18-1100639 1265 HARKRIDER ST 2018-11-04 10:00:01.593 BATTERY REPORT
18-1100632 2101 COLLEGE AV 2018-11-04 09:10:18.500 TRAFFIC LIGHT PROBLEM
18-1100629 705 MUSEUM RD 2018-11-04 08:15:07.557 BREAKING OR ENTERING
18-1100628 18-12686 1284 S AMITY RD 2018-11-04 07:57:41.090 MISSING PERSON
18-1100627 1615 IVY CV 2018-11-04 07:51:57.563 911 HANGUP CALL
18-1100626 1720 OLD MORRILTON HWY 2018-11-04 07:49:09.537 ALARM
18-1100625 1001 MCNUTT RD 2018-11-04 07:32:09.267 MISDEMEANOR WARRANT SERVICE
18-1100624 2101 COLLEGE AV 2018-11-04 06:39:08.800 TRAFFIC LIGHT PROBLEM
18-1100623 45 MOCKINGBIRD LN 2018-11-04 06:36:32.380 PARKING VIOLATION
18-1100622 1012 E OAK ST 2018-11-04 06:29:17.620 ALARM
18-1100621 18-12676 1200 CROSSPOINT RD 2018-11-04 06:08:06.347 CHECK ON THE WELFARE
18-1100619 650 SKYLINE DR 2018-11-04 05:12:18.993 ACCIDENT - PERSONAL INJURY
18-1100618 2645 DONAGHEY AV 2018-11-04 05:06:31.673 ALARM
18-1100617 345 S DAVIS ST 2018-11-04 04:03:13.713 LOUD NOISE-MUSIC
18-1100616 2235 DAVE WARD DR 2018-11-04 03:53:18.917 ATTEMPT TO CONTACT
18-1100615 2730 DAVE WARD DR 2018-11-04 03:50:15.383 TRAFFIC PROBLEM-CONTROL
18-1100613 9 PAMELA LN 2018-11-04 03:43:47.287 CHECK ON THE WELFARE
18-1100612 1305 ACUFF LN 2018-11-04 03:29:28.770 CITIZEN ASSIST
18-1100611 18-12675 1200 DAVE WARD DR 2018-11-04 02:46:56.347 ACCIDENT - PROPERTY DAMAGE
18-1100610 1305 ACUFF LN 2018-11-04 02:42:27.463 PROWLER
18-1100609 2235 DAVE WARD DR 2018-11-04 02:40:54.037 THEFT OF VEHICLE
18-1100607 601 ELSINGER BLVD 2018-11-04 02:17:54.917 ALARM
18-1100606 5140 STOCKTON RD 2018-11-04 02:08:48.950 SUPPLEMENT REPORT CALL
18-1100605 601 ELSINGER BLVD 2018-11-04 02:02:28.387 ALARM
18-1100603 601 ELSINGER BLVD 2018-11-04 01:49:35.220 ALARM
18-1100590 2235 DAVE WARD DR 2018-11-04 01:48:31.250 DISTURBANCE
18-1100589 2235 DAVE WARD DR 2018-11-04 01:48:11.750 DISTURBANCE
18-1100602 1095 SKYLINE DR 2018-11-04 01:42:58.853 PARKING VIOLATION
18-1100600 18-12674 2235 DAVE WARD DR 2018-11-04 01:37:07.350 HARASSMENT
18-1100588 601 ELSINGER BLVD 2018-11-04 01:36:13.510 ALARM
18-1100587 2712 BRUCE ST 2018-11-04 01:34:23.233 LOUD NOISE-MUSIC
18-1100599 18-12673 2235 DAVE WARD DR 2018-11-04 01:30:50.377 THEFT OF VEHICLE
18-1100598 2100 DAVE WARD DR 2018-11-04 01:29:46.283 STALLED VEHICLE
18-1100597 1095 SKYLINE DR 2018-11-04 01:28:10.413 INTOXICATED PERSON
18-1100596 18-12672 2302 COLLEGE AV 2018-11-04 01:24:15.613 DISTURBANCE
18-1100586 2050 DAVE WARD DR 2018-11-04 01:14:00.303 LOITERING
18-1100591 2455 WASHINGTON AV 2018-11-04 01:13:42.657 ALARM
18-1100585 2715 PRINCE ST 2018-11-04 01:13:39.803 CHECKING VEHICLE
18-1100593 2050 DAVE WARD DR 2018-11-04 01:09:58.170 LOITERING
18-1100584 1701 DAVE WARD DR 2018-11-04 01:09:32.997 SUSPICIOUS PERSON
18-1100594 410 ELSINGER BLVD 2018-11-04 01:00:17.447 ALARM
18-1100583 2890 DAVE WARD DR 2018-11-04 00:58:03.307 UNKNOWN TROUBLE
18-1100582 18-12868 2500 COLLEGE AV 2018-11-04 00:55:25.887 LOUD NOISE-MUSIC
18-1100581 2050 BELLINGRATH GARDENS 2018-11-04 00:54:36.747 LOUD NOISE-MUSIC
18-1100580 18-12667 401 HEREFORD ST 2018-11-04 00:50:18.863 THEFT OF VEHICLE
18-1100579 1284 S AMITY RD 2018-11-04 00:50:03.510 ALARM
18-1100578 18-12670 2900 PRINCE ST 2018-11-04 00:47:18.853 ACCIDENT - PROPERTY DAMAGE
18-1100577 7 BRIERWOOD CIR 2018-11-04 00:38:12.667 AGENCY ASSIST
18-1100576 3035 PEBBLE BEACH DR 2018-11-04 00:24:22.183 LOUD NOISE-MUSIC
18-1100575 2850 PRINCE ST 2018-11-04 00:23:55.493 SUSPICIOUS ACTIVITY
18-1100574 900 PINE ST 2018-11-04 00:21:55.077 ACCIDENT - PROPERTY DAMAGE
18-1100573 18-12668 1399 SPENCER ST 2018-11-04 00:19:56.767 ACCIDENT - PROPERTY DAMAGE
18-1100572 101 OAK ST 2018-11-04 00:15:45.933 BURGLARY
18-1100571 18-12669 4840 SHEPHERDS CREEK DR 2018-11-04 00:12:11.217 MISSING PERSON
18-1100570 100 SKYLINE DR 2018-11-04 00:11:43.167 RECKLESS DRIVER
18-1100569 701 REEDY RD 2018-11-04 00:06:13.930 DOMESTIC DISTURBANCE
18-1100568 1050 FRONT ST 2018-11-04 00:04:31.810 DISTURBANCE
18-1100567 18-12665 1200 OLD MORRILTON HWY 2018-11-04 00:01:27.857 ACCIDENT - PROPERTY DAMAGE
18-1100566 1055 VAN RONKLE ST 2018-11-04 00:00:53.550 DISTURBANCE
Call Number Case Number Address Call Time Incident Type

General Contacts

POLICE HEADQUARTERS
1105 Prairie Street
Conway, AR 72032

Conway Police Department


  911 (EMERGENCIES ONLY)

  501.450.6120 (non-emergency)

ANONYMOUS TIPS
 Leave a message at 501.450.6135
 Text CONWAY and your tip to 274637 (CRIMES) Click for an Example

   

City of Conway

We, the members of the Conway Police Department, are committed to protecting and serving the citizens of Conway, Arkansas. That is our highest calling, as we pledge to join hands with others in carrying out our sworn duty to uphold the law.

Chief Jody Spradlin

Latest Tweets

No tweets found.